KC5DAQ-25 Weather Reports


Display with metric or nautical units.
time (UTC)temp
F
wind
direction
speed
MPH
gust
MPH
rain 1hr
in
rain 24hr
in
rain mn
in
humidity
%
barometer
mb
20260508114602 67 350 0.0 1.0 0.00 0.00 0.00 83 1004.7
20260508114504 67 350 0.0 1.0 0.00 0.00 0.00 83 1004.7
20260508114404 67 350 0.0 1.0 0.00 0.00 0.00 83 1004.7
20260508114303 67 350 0.0 1.0 0.00 0.00 0.00 83 1004.7
20260508114203 67 350 0.0 1.0 0.00 0.00 0.00 83 1004.7
20260508114102 67 350 0.0 1.0 0.00 0.00 0.00 83 1004.8
20260508114004 67 350 0.0 1.0 0.00 0.00 0.00 83 1004.8
20260508113903 67 350 0.0 1.0 0.00 0.00 0.00 83 1004.8
20260508113801 67 350 0.0 1.0 0.00 0.00 0.00 83 1004.8
20260508113702 67 350 0.0 1.0 0.00 0.00 0.00 83 1004.8
20260508113603 67 350 0.0 1.0 0.00 0.00 0.00 83 1004.7
20260508113503 67 350 0.0 1.0 0.00 0.00 0.00 83 1004.7
20260508113402 67 348 0.0 1.0 0.00 0.00 0.00 83 1004.7
20260508113302 67 121 0.0 0.0 0.00 0.00 0.00 83 1004.8
20260508113202 67 121 0.0 0.0 0.00 0.00 0.00 83 1004.8
20260508113102 67 121 0.0 1.0 0.00 0.00 0.00 83 1004.8
20260508113005 67 121 0.0 1.0 0.00 0.00 0.00 83 1004.9
20260508112901 67 121 0.0 1.0 0.00 0.00 0.00 82 1004.9
20260508112801 67 121 0.0 1.0 0.00 0.00 0.00 82 1005.0
20260508112658 67 121 0.0 1.0 0.00 0.00 0.00 83 1004.8
20260508112557 67 121 0.0 1.0 0.00 0.00 0.00 82 1004.8
20260508112456 67 121 0.0 1.0 0.00 0.00 0.00 82 1004.8
20260508112355 67 121 0.0 1.0 0.00 0.00 0.00 82 1004.7
20260508112255 67 121 0.0 1.0 0.00 0.00 0.00 82 1004.6
20260508112156 67 121 0.0 1.0 0.00 0.00 0.00 82 1004.6
20260508112055 67 121 0.0 1.0 0.00 0.00 0.00 82 1004.5
20260508111954 67 121 0.0 1.0 0.00 0.00 0.00 82 1004.6
20260508111854 67 121 0.0 1.0 0.00 0.00 0.00 82 1004.6
20260508111757 67 121 0.0 1.0 0.00 0.00 0.00 82 1004.6
20260508111654 67 121 0.0 1.0 0.00 0.00 0.00 82 1004.6
20260508111556 67 121 0.0 1.0 0.00 0.00 0.00 82 1004.7
20260508111456 67 121 0.0 1.0 0.00 0.00 0.00 82 1004.7
20260508111355 67 121 0.0 2.0 0.00 0.00 0.00 82 1004.7
20260508111254 67 121 0.0 2.0 0.00 0.00 0.00 82 1004.7
20260508111156 67 121 0.0 2.0 0.00 0.00 0.00 82 1004.6
20260508111058 67 121 0.0 2.0 0.00 0.00 0.00 82 1004.6
20260508110956 67 121 0.0 2.0 0.00 0.00 0.00 82 1004.6
20260508110855 67 121 0.0 2.0 0.00 0.00 0.00 82 1004.7
20260508110754 67 121 0.0 2.0 0.00 0.00 0.00 82 1004.6
20260508110655 67 61 0.0 2.0 0.00 0.00 0.00 82 1004.7
20260508110556 67 61 0.0 2.0 0.00 0.00 0.00 82 1004.7
20260508110454 67 79 0.0 2.0 0.00 0.00 0.00 82 1004.7
20260508110356 67 68 0.0 1.0 0.00 0.00 0.00 82 1004.7
20260508110256 67 68 0.0 1.0 0.00 0.00 0.00 82 1004.8
20260508110154 67 0 0.0 0.0 0.00 0.00 0.00 82 1004.9
20260508110054 67 0 0.0 0.0 0.00 0.00 0.00 82 1004.8
20260508105954 67 0 0.0 0.0 0.00 0.00 0.00 82 1004.8
20260508105854 67 0 0.0 0.0 0.00 0.00 0.00 82 1004.8
20260508105755 67 0 0.0 0.0 0.00 0.00 0.00 82 1004.7
20260508105655 67 0 0.0 0.0 0.00 0.00 0.00 82 1004.7
20260508105555 67 0 0.0 0.0 0.00 0.00 0.00 82 1004.6
20260508105455 67 0 0.0 0.0 0.00 0.00 0.00 82 1004.5
20260508105355 67 0 0.0 0.0 0.00 0.00 0.00 82 1004.5
20260508105254 67 0 0.0 0.0 0.00 0.00 0.00 82 1004.5
20260508105156 67 0 0.0 0.0 0.00 0.00 0.00 82 1004.5
20260508105054 67 0 0.0 0.0 0.00 0.00 0.00 82 1004.5
20260508104955 67 92 0.0 0.0 0.00 0.00 0.00 82 1004.6
20260508104854 67 92 0.0 0.0 0.00 0.00 0.00 82 1004.6
20260508104755 67 92 0.0 1.0 0.00 0.00 0.00 82 1004.6
20260508104655 67 92 0.0 1.0 0.00 0.00 0.00 82 1004.5
20260508104554 67 92 0.0 1.0 0.00 0.00 0.00 82 1004.5
20260508104453 67 92 0.0 1.0 0.00 0.00 0.00 82 1004.5
20260508104353 67 92 0.0 1.0 0.00 0.00 0.00 82 1004.5
20260508104254 67 92 0.0 1.0 0.00 0.00 0.00 82 1004.5
20260508104206 67 92 0.0 1.0 0.00 0.00 0.00 82 1004.5
20260508104054 67 92 0.0 1.0 0.00 0.00 0.00 82 1004.4
20260508103955 67 92 0.0 1.0 0.00 0.00 0.00 82 1004.4
20260508103853 67 92 0.0 1.0 0.00 0.00 0.00 82 1004.3
20260508103753 67 102 0.0 0.0 0.00 0.00 0.00 82 1004.3
20260508103655 67 102 0.0 0.0 0.00 0.00 0.00 82 1004.3
20260508103555 67 326 0.0 0.0 0.00 0.00 0.00 82 1004.4
20260508103455 67 326 0.0 0.0 0.00 0.00 0.00 82 1004.4
20260508103353 67 326 0.0 0.0 0.00 0.00 0.00 82 1004.4
20260508103254 67 326 0.0 0.0 0.00 0.00 0.00 82 1004.4
20260508103156 67 326 0.0 0.0 0.00 0.00 0.00 82 1004.4
20260508103054 67 326 0.0 0.0 0.00 0.00 0.00 82 1004.5
20260508102955 67 326 0.0 0.0 0.00 0.00 0.00 82 1004.5
20260508102854 67 326 0.0 0.0 0.00 0.00 0.00 82 1004.4
20260508102753 67 326 0.0 0.0 0.00 0.00 0.00 82 1004.5
20260508102654 67 326 0.0 0.0 0.00 0.00 0.00 82 1004.4
20260508102554 67 326 0.0 0.0 0.00 0.00 0.00 82 1004.4
20260508102455 67 326 0.0 0.0 0.00 0.00 0.00 82 1004.4
20260508102354 67 320 0.0 0.0 0.00 0.00 0.00 82 1004.4
20260508102253 67 320 0.0 0.0 0.00 0.00 0.00 82 1004.4
20260508102154 67 320 0.0 0.0 0.00 0.00 0.00 82 1004.4
20260508102054 67 320 0.0 0.0 0.00 0.00 0.00 82 1004.5
20260508101954 67 320 0.0 0.0 0.00 0.00 0.00 82 1004.5
20260508101854 67 320 0.0 0.0 0.00 0.00 0.00 82 1004.5
20260508101753 67 320 0.0 0.0 0.00 0.00 0.00 82 1004.5
20260508101655 67 71 0.0 0.0 0.00 0.00 0.00 82 1004.5
20260508101553 67 71 0.0 0.0 0.00 0.00 0.00 82 1004.4
20260508101454 67 71 0.0 0.0 0.00 0.00 0.00 82 1004.4
20260508101354 67 71 0.0 0.0 0.00 0.00 0.00 82 1004.4
20260508101255 67 71 0.0 0.0 0.00 0.00 0.00 82 1004.4
20260508101153 67 71 0.0 0.0 0.00 0.00 0.00 82 1004.5
20260508101053 67 71 0.0 0.0 0.00 0.00 0.00 82 1004.7
20260508100955 67 71 0.0 0.0 0.00 0.00 0.00 82 1004.6
20260508100853 67 71 0.0 0.0 0.00 0.00 0.00 82 1004.6
20260508100753 67 71 0.0 0.0 0.00 0.00 0.00 82 1004.7
20260508100654 67 71 0.0 0.0 0.00 0.00 0.00 82 1004.7
20260508100600 67 71 0.0 0.0 0.00 0.00 0.00 82 1004.7
20260508100454 67 71 0.0 0.0 0.00 0.00 0.00 82 1004.8
20260508100353 67 71 0.0 0.0 0.00 0.00 0.00 82 1004.8
20260508100255 67 71 0.0 0.0 0.00 0.00 0.00 82 1004.8
20260508100154 67 71 0.0 0.0 0.00 0.00 0.00 82 1004.8
20260508100056 67 71 0.0 0.0 0.00 0.00 0.00 82 1004.7
20260508095953 67 71 0.0 0.0 0.00 0.00 0.00 82 1004.7
20260508095852 67 71 0.0 0.0 0.00 0.00 0.00 82 1004.7
20260508095753 67 71 0.0 0.0 0.00 0.00 0.00 82 1004.7
20260508095653 67 71 0.0 0.0 0.00 0.00 0.00 82 1004.8
20260508095553 67 71 0.0 0.0 0.00 0.00 0.00 82 1004.8
20260508095454 67 71 0.0 0.0 0.00 0.00 0.00 82 1004.8
20260508095354 67 71 0.0 0.0 0.00 0.00 0.00 82 1004.8
20260508095253 67 71 0.0 0.0 0.00 0.00 0.00 82 1004.9
20260508095154 67 71 0.0 0.0 0.00 0.00 0.00 82 1004.9
20260508095054 67 71 0.0 0.0 0.00 0.00 0.00 82 1004.9
20260508094952 67 71 0.0 0.0 0.00 0.00 0.00 81 1005.1
20260508094853 67 71 0.0 0.0 0.00 0.00 0.00 81 1005.1
20260508094753 67 71 0.0 0.0 0.00 0.00 0.00 81 1005.1
20260508094654 67 71 0.0 0.0 0.00 0.00 0.00 81 1005.2
20260508094552 67 71 0.0 0.0 0.00 0.00 0.00 81 1005.0
20260508094449 67 71 0.0 0.0 0.00 0.00 0.00 81 1004.9
20260508094349 67 71 0.0 0.0 0.00 0.00 0.00 81 1004.9
20260508094246 67 71 0.0 0.0 0.00 0.00 0.00 81 1004.8
20260508094140 67 71 0.0 0.0 0.00 0.00 0.00 81 1004.8
20260508094039 67 71 0.0 0.0 0.00 0.00 0.00 81 1004.7
20260508093941 67 71 0.0 0.0 0.00 0.00 0.00 81 1004.6
20260508093841 67 71 0.0 0.0 0.00 0.00 0.00 81 1004.6
20260508093739 67 71 0.0 0.0 0.00 0.00 0.00 81 1004.5
20260508093639 67 71 0.0 0.0 0.00 0.00 0.00 81 1004.4
20260508093533 67 71 0.0 0.0 0.00 0.00 0.00 81 1004.3
20260508093432 67 71 0.0 2.0 0.00 0.00 0.00 81 1004.3
20260508093330 67 71 0.0 2.0 0.00 0.00 0.00 81 1004.2
20260508093231 67 71 0.0 2.0 0.00 0.00 0.00 81 1004.1
20260508093131 67 71 0.0 2.0 0.00 0.00 0.00 81 1004.2
20260508093031 67 71 0.0 2.0 0.00 0.00 0.00 81 1004.2
20260508092931 67 73 0.0 2.0 0.00 0.00 0.00 81 1004.2
20260508092831 67 73 0.0 2.0 0.00 0.00 0.00 81 1004.1
20260508092731 67 73 0.0 2.0 0.00 0.00 0.00 81 1004.1
20260508092625 67 73 0.0 2.0 0.00 0.00 0.00 81 1004.1
20260508092521 67 73 0.0 2.0 0.00 0.00 0.00 81 1004.2
20260508092417 67 73 0.0 1.0 0.00 0.00 0.00 81 1004.3
20260508092313 67 340 0.0 0.0 0.00 0.00 0.00 81 1004.4
20260508092206 67 340 0.0 0.0 0.00 0.00 0.00 81 1004.5
20260508092104 67 340 0.0 0.0 0.00 0.00 0.00 81 1004.5
20260508092005 67 340 0.0 0.0 0.00 0.00 0.00 81 1004.5
20260508091903 67 340 0.0 0.0 0.00 0.00 0.00 81 1004.5
20260508091803 67 340 0.0 0.0 0.00 0.00 0.00 81 1004.6
20260508091704 67 340 0.0 0.0 0.00 0.00 0.00 81 1004.6
20260508091604 67 340 0.0 0.0 0.00 0.00 0.00 81 1004.6
20260508091501 67 340 0.0 0.0 0.00 0.00 0.00 81 1004.6
20260508091401 67 340 0.0 0.0 0.00 0.00 0.00 81 1004.5
20260508091253 67 340 0.0 0.0 0.00 0.00 0.00 81 1004.5
20260508091152 67 340 0.0 0.0 0.00 0.00 0.00 81 1004.5
20260508091052 67 340 0.0 0.0 0.00 0.00 0.00 81 1004.5
20260508090952 67 340 0.0 0.0 0.00 0.00 0.00 81 1004.5
20260508090851 67 340 0.0 0.0 0.00 0.00 0.00 81 1004.5
20260508090752 67 340 0.0 0.0 0.00 0.00 0.00 81 1004.5
20260508090650 67 340 0.0 0.0 0.00 0.00 0.00 81 1004.4
20260508090552 67 340 0.0 0.0 0.00 0.00 0.00 81 1004.4
20260508090453 67 340 0.0 0.0 0.00 0.00 0.00 81 1004.4
20260508090353 67 340 0.0 0.0 0.00 0.00 0.00 81 1004.4
20260508090253 67 340 0.0 0.0 0.00 0.00 0.00 81 1004.3
20260508090152 67 340 0.0 0.0 0.00 0.00 0.00 81 1004.3
20260508090051 67 340 0.0 0.0 0.00 0.00 0.00 81 1004.3
20260508085952 67 340 0.0 0.0 0.00 0.00 0.00 81 1004.3
20260508085852 67 340 0.0 0.0 0.00 0.00 0.00 81 1004.3
20260508085751 67 340 0.0 0.0 0.00 0.00 0.00 81 1004.3
20260508085651 67 340 0.0 0.0 0.00 0.00 0.00 81 1004.3
20260508085552 67 340 0.0 0.0 0.00 0.00 0.00 81 1004.3
20260508085453 67 340 0.0 0.0 0.00 0.00 0.00 81 1004.1
20260508085351 67 340 0.0 0.0 0.00 0.00 0.00 81 1004.1
20260508085252 67 350 0.0 0.0 0.00 0.00 0.00 81 1004.1
20260508085151 67 350 0.0 0.0 0.00 0.00 0.00 81 1004.1
20260508085056 67 350 0.0 0.0 0.00 0.00 0.00 81 1004.0
20260508084952 67 350 0.0 0.0 0.00 0.00 0.00 81 1004.0
20260508084852 67 350 0.0 0.0 0.00 0.00 0.00 81 1004.1
20260508084753 67 350 0.0 0.0 0.00 0.00 0.00 81 1004.0
20260508084651 67 350 0.0 0.0 0.00 0.00 0.00 81 1004.1
20260508084552 67 350 0.0 0.0 0.00 0.00 0.00 81 1004.1
20260508084451 67 350 0.0 0.0 0.00 0.00 0.00 81 1004.2
20260508084351 67 350 0.0 0.0 0.00 0.00 0.00 81 1004.2
20260508084252 67 350 0.0 0.0 0.00 0.00 0.00 81 1004.3
20260508084151 67 350 0.0 0.0 0.00 0.00 0.00 81 1004.3
20260508084054 67 350 0.0 0.0 0.00 0.00 0.00 81 1004.4
20260508083951 67 350 0.0 0.0 0.00 0.00 0.00 81 1004.4
20260508083851 67 350 0.0 0.0 0.00 0.00 0.00 81 1004.4
20260508083753 67 350 0.0 0.0 0.00 0.00 0.00 81 1004.4
20260508083651 67 350 0.0 0.0 0.00 0.00 0.00 81 1004.4
20260508083550 67 350 0.0 0.0 0.00 0.00 0.00 81 1004.4
20260508083451 67 350 0.0 0.0 0.00 0.00 0.00 81 1004.4
20260508083351 67 350 0.0 0.0 0.00 0.00 0.00 81 1004.5
20260508083251 67 350 0.0 0.0 0.00 0.00 0.00 81 1004.5
20260508083152 67 350 0.0 0.0 0.00 0.00 0.00 81 1004.5
20260508083053 67 350 0.0 0.0 0.00 0.00 0.00 81 1004.5
20260508082951 67 350 0.0 0.0 0.00 0.00 0.00 81 1004.6
20260508082851 67 350 0.0 0.0 0.00 0.00 0.00 81 1004.6
20260508082751 67 350 0.0 0.0 0.00 0.00 0.00 81 1004.6
20260508082650 67 350 0.0 0.0 0.00 0.00 0.00 81 1004.6
20260508082551 67 350 0.0 0.0 0.00 0.00 0.00 81 1004.6
20260508082452 67 350 0.0 1.0 0.00 0.00 0.00 81 1004.6
20260508082352 67 350 0.0 1.0 0.00 0.00 0.00 81 1004.6
20260508082251 67 350 0.0 1.0 0.00 0.00 0.00 81 1004.7
20260508082151 67 350 0.0 1.0 0.00 0.00 0.00 81 1004.7
20260508082050 67 350 0.0 1.0 0.00 0.00 0.00 81 1004.7
20260508081951 67 350 0.0 1.0 0.00 0.00 0.00 81 1004.7
20260508081852 67 350 0.0 1.0 0.00 0.00 0.00 81 1004.6
20260508081752 67 350 0.0 1.0 0.00 0.00 0.00 81 1004.5
20260508081650 67 350 0.0 1.0 0.00 0.00 0.00 81 1004.6
20260508081550 67 350 0.0 1.0 0.00 0.00 0.00 81 1004.6
20260508081450 67 86 0.0 0.0 0.00 0.00 0.00 81 1004.6
20260508081352 67 86 0.0 0.0 0.00 0.00 0.00 81 1004.6
20260508081250 67 86 0.0 0.0 0.00 0.00 0.00 81 1004.6
20260508081151 67 86 0.0 0.0 0.00 0.00 0.00 81 1004.6
20260508081050 67 86 0.0 0.0 0.00 0.00 0.00 81 1004.5
20260508080952 66 86 0.0 0.0 0.00 0.00 0.00 81 1004.6
20260508080850 66 86 0.0 0.0 0.00 0.00 0.00 81 1004.6
20260508080752 66 86 0.0 0.0 0.00 0.00 0.00 81 1004.6
20260508080657 66 86 0.0 0.0 0.00 0.00 0.00 81 1004.6
20260508080550 66 86 0.0 0.0 0.00 0.00 0.00 81 1004.6
20260508080452 66 86 0.0 0.0 0.00 0.00 0.00 81 1004.6
20260508080350 66 86 0.0 0.0 0.00 0.00 0.00 81 1004.5
20260508080252 66 86 0.0 0.0 0.00 0.00 0.00 81 1004.6
20260508080152 66 86 0.0 0.0 0.00 0.00 0.00 81 1004.6
20260508080050 66 86 0.0 0.0 0.00 0.00 0.00 81 1004.6
20260508075950 66 86 0.0 0.0 0.00 0.00 0.00 81 1004.6
20260508075851 66 86 0.0 0.0 0.00 0.00 0.00 81 1004.7
20260508075750 66 86 0.0 0.0 0.00 0.00 0.00 81 1004.6
20260508075650 66 86 0.0 0.0 0.00 0.00 0.00 81 1004.6
20260508075551 66 86 0.0 0.0 0.00 0.00 0.00 81 1004.6
20260508075450 66 86 0.0 0.0 0.00 0.00 0.00 81 1004.5
20260508075351 66 86 0.0 0.0 0.00 0.00 0.00 81 1004.6
20260508075250 66 86 0.0 0.0 0.00 0.00 0.00 82 1004.6
20260508075150 66 86 0.0 0.0 0.00 0.00 0.00 82 1004.7
20260508075050 66 86 0.0 0.0 0.00 0.00 0.00 82 1004.6
20260508074951 66 86 0.0 0.0 0.00 0.00 0.00 82 1004.7
20260508074850 66 86 0.0 0.0 0.00 0.00 0.00 82 1004.8
20260508074749 66 86 0.0 0.0 0.00 0.00 0.00 82 1004.7
20260508074651 66 86 0.0 0.0 0.00 0.00 0.00 82 1004.7
20260508074550 66 86 0.0 0.0 0.00 0.00 0.00 82 1004.8
20260508074451 66 86 0.0 0.0 0.00 0.00 0.00 82 1004.7
20260508074351 66 86 0.0 0.0 0.00 0.00 0.00 82 1004.7
20260508074249 66 86 0.0 0.0 0.00 0.00 0.00 82 1004.8
20260508074151 66 86 0.0 0.0 0.00 0.00 0.00 82 1004.8
20260508074050 66 86 0.0 0.0 0.00 0.00 0.00 82 1004.9
20260508073950 66 86 0.0 0.0 0.00 0.00 0.00 82 1005.0
20260508073851 66 86 0.0 0.0 0.00 0.00 0.00 82 1005.0
20260508073750 66 86 0.0 0.0 0.00 0.00 0.00 82 1005.0
20260508073650 66 86 0.0 0.0 0.00 0.00 0.00 82 1005.0
20260508073550 66 86 0.0 0.0 0.00 0.00 0.00 82 1005.1
20260508073449 66 86 0.0 0.0 0.00 0.00 0.00 82 1005.0
20260508073350 66 86 0.0 0.0 0.00 0.00 0.00 82 1005.0
20260508073252 66 86 0.0 0.0 0.00 0.00 0.00 82 1005.1
20260508073149 66 86 0.0 0.0 0.00 0.00 0.00 82 1005.1
20260508073049 66 86 0.0 0.0 0.00 0.00 0.00 82 1005.2
20260508072950 66 86 0.0 0.0 0.00 0.00 0.00 82 1005.2
20260508072850 66 86 0.0 0.0 0.00 0.00 0.00 82 1005.3
20260508072750 66 86 0.0 0.0 0.00 0.00 0.00 82 1005.3
20260508072652 66 86 0.0 0.0 0.00 0.00 0.00 82 1005.3
20260508072551 66 86 0.0 0.0 0.00 0.00 0.00 82 1005.4
20260508072451 66 86 0.0 0.0 0.00 0.00 0.00 82 1005.4
20260508072349 66 86 0.0 0.0 0.00 0.00 0.00 82 1005.4
20260508072252 66 86 0.0 0.0 0.00 0.00 0.00 82 1005.3
20260508072151 66 86 0.0 0.0 0.00 0.00 0.00 82 1005.3
20260508072053 66 86 0.0 0.0 0.00 0.00 0.00 82 1005.2
20260508071951 66 86 0.0 0.0 0.00 0.00 0.00 82 1005.1
20260508071851 66 86 0.0 0.0 0.00 0.00 0.00 82 1005.0
20260508071751 66 86 0.0 0.0 0.00 0.00 0.00 82 1005.1
20260508071649 66 86 0.0 0.0 0.00 0.00 0.00 82 1005.1
20260508071550 66 86 0.0 0.0 0.00 0.00 0.00 82 1005.2
20260508071449 66 86 0.0 0.0 0.00 0.00 0.00 82 1005.3
20260508071349 66 86 0.0 0.0 0.00 0.00 0.00 82 1005.3
20260508071252 66 86 0.0 0.0 0.00 0.00 0.00 82 1005.3
20260508071149 66 86 0.0 0.0 0.00 0.00 0.00 82 1005.3
20260508071051 66 86 0.0 0.0 0.00 0.00 0.00 82 1005.2
20260508070952 66 86 0.0 0.0 0.00 0.00 0.00 82 1005.1
20260508070849 66 86 0.0 0.0 0.00 0.00 0.00 82 1005.0
20260508070749 66 86 0.0 0.0 0.00 0.00 0.00 82 1005.0
20260508070649 66 86 0.0 0.0 0.00 0.00 0.00 82 1004.9
20260508070549 65 86 0.0 0.0 0.00 0.00 0.00 82 1005.0
20260508070451 65 86 0.0 0.0 0.00 0.00 0.00 82 1004.9
20260508070349 65 86 0.0 0.0 0.00 0.00 0.00 82 1005.0
20260508070249 65 86 0.0 0.0 0.00 0.00 0.00 82 1005.1
20260508070149 65 86 0.0 0.0 0.00 0.00 0.00 82 1005.1
20260508070050 65 86 0.0 0.0 0.00 0.00 0.00 82 1005.2
20260508065950 65 86 0.0 0.0 0.00 0.00 0.00 82 1005.1
20260508065850 65 86 0.0 0.0 0.00 0.00 0.00 82 1005.2
20260508065748 65 86 0.0 0.0 0.00 0.00 0.00 82 1005.3
20260508065649 65 86 0.0 0.0 0.00 0.00 0.00 82 1005.2
20260508065548 65 86 0.0 0.0 0.00 0.00 0.00 82 1005.3
20260508065449 65 86 0.0 0.0 0.00 0.00 0.00 82 1005.4
20260508065349 65 86 0.0 0.0 0.00 0.00 0.00 82 1005.4
20260508065249 65 86 0.0 0.0 0.00 0.00 0.00 82 1005.4
20260508065149 65 86 0.0 0.0 0.00 0.00 0.00 82 1005.3
20260508065049 65 86 0.0 0.0 0.00 0.00 0.00 82 1005.3
20260508064950 65 86 0.0 0.0 0.00 0.00 0.00 82 1005.3
20260508064850 65 86 0.0 0.0 0.00 0.00 0.00 82 1005.4
20260508064748 65 86 0.0 0.0 0.00 0.00 0.00 82 1005.4
20260508064649 65 86 0.0 0.0 0.00 0.00 0.00 82 1005.4
20260508064550 65 86 0.0 0.0 0.00 0.00 0.00 82 1005.3
20260508064448 65 86 0.0 0.0 0.00 0.00 0.00 82 1005.3
20260508064349 65 86 0.0 0.0 0.00 0.00 0.00 82 1005.3
20260508064248 65 86 0.0 0.0 0.00 0.00 0.00 82 1005.3
20260508064150 65 86 0.0 0.0 0.00 0.00 0.00 82 1005.3
20260508064050 65 86 0.0 0.0 0.00 0.00 0.00 82 1005.3
20260508063949 65 86 0.0 0.0 0.00 0.00 0.00 82 1005.3
20260508063849 65 86 0.0 0.0 0.00 0.00 0.00 82 1005.3
20260508063749 65 86 0.0 0.0 0.00 0.00 0.00 82 1005.2
20260508063650 65 86 0.0 0.0 0.00 0.00 0.00 82 1005.2
20260508063549 65 86 0.0 0.0 0.00 0.00 0.00 82 1005.3
20260508063450 65 86 0.0 0.0 0.00 0.00 0.00 82 1005.3
20260508063348 65 86 0.0 0.0 0.00 0.00 0.00 82 1005.3
20260508063250 65 86 0.0 0.0 0.00 0.00 0.00 82 1005.2
20260508063149 65 86 0.0 0.0 0.00 0.00 0.00 83 1005.2
20260508063048 65 99 0.0 0.0 0.00 0.00 0.00 83 1005.3
20260508062948 65 99 0.0 0.0 0.00 0.00 0.00 83 1005.3
20260508062849 65 99 0.0 0.0 0.00 0.00 0.00 83 1005.3
20260508062748 65 99 0.0 0.0 0.00 0.00 0.00 82 1005.4
20260508062654 65 99 0.0 0.0 0.00 0.00 0.00 82 1005.4
20260508062548 65 99 0.0 0.0 0.00 0.00 0.00 82 1005.4
20260508062448 65 99 0.0 0.0 0.00 0.00 0.00 82 1005.5
20260508062348 65 99 0.0 0.0 0.00 0.00 0.00 82 1005.5
20260508062248 65 99 0.0 0.0 0.00 0.00 0.00 82 1005.5
20260508062151 65 99 0.0 0.0 0.00 0.00 0.00 82 1005.5
20260508062048 65 99 0.0 1.0 0.00 0.00 0.00 82 1005.5
20260508061948 65 99 0.0 1.0 0.00 0.00 0.00 82 1005.5
20260508061848 65 99 0.0 1.0 0.00 0.00 0.00 82 1005.4
20260508061747 65 99 0.0 1.0 0.00 0.00 0.00 82 1005.4
20260508061648 65 99 0.0 1.0 0.00 0.00 0.00 82 1005.3
20260508061548 65 100 0.0 1.0 0.00 0.00 0.00 82 1005.2
20260508061448 65 100 0.0 1.0 0.00 0.00 0.00 82 1005.2
20260508061348 65 93 0.0 1.0 0.00 0.00 0.00 82 1005.3
20260508061247 65 93 0.0 1.0 0.00 0.00 0.00 82 1005.4
20260508061147 65 92 0.0 1.0 0.00 0.00 0.00 82 1005.4
20260508061048 65 93 0.0 0.0 0.00 0.00 0.00 82 1005.4
20260508060948 65 93 0.0 0.0 0.00 0.00 0.00 82 1005.5
20260508060849 65 93 0.0 0.0 0.00 0.00 0.00 82 1005.6
20260508060747 65 93 0.0 0.0 0.00 0.00 0.00 82 1005.6
20260508060650 65 93 0.0 0.0 0.00 0.00 0.00 82 1005.7
20260508060547 65 93 0.0 0.0 0.00 0.00 0.00 82 1005.7
20260508060447 65 93 0.0 0.0 0.00 0.00 0.00 82 1005.6
20260508060349 65 93 0.0 0.0 0.00 0.00 0.00 82 1005.6
20260508060247 65 93 0.0 0.0 0.00 0.00 0.00 82 1005.4
20260508060147 65 93 0.0 0.0 0.00 0.00 0.00 82 1005.4
20260508060048 65 93 0.0 0.0 0.00 0.00 0.00 82 1005.2
20260508055948 65 93 0.0 0.0 0.00 0.00 0.00 82 1005.3
20260508055847 65 93 0.0 0.0 0.00 0.00 0.00 82 1005.2
20260508055748 65 93 0.0 0.0 0.00 0.00 0.00 82 1005.2
20260508055648 65 93 0.0 0.0 0.00 0.00 0.00 82 1005.2
20260508055548 65 93 0.0 0.0 0.00 0.00 0.00 82 1005.2
20260508055448 65 93 0.0 0.0 0.00 0.00 0.00 82 1005.1
20260508055347 65 93 0.0 0.0 0.00 0.00 0.00 82 1005.2
20260508055247 65 93 0.0 0.0 0.00 0.00 0.00 82 1005.1
20260508055147 65 93 0.0 0.0 0.00 0.00 0.00 82 1005.1
20260508055054 65 93 0.0 0.0 0.00 0.00 0.00 82 1005.0
20260508054948 65 93 0.0 0.0 0.00 0.00 0.00 82 1005.0
20260508054849 65 93 0.0 0.0 0.00 0.00 0.00 82 1005.0
20260508054748 65 93 0.0 0.0 0.00 0.00 0.00 82 1004.9
20260508054647 65 93 0.0 0.0 0.00 0.00 0.00 82 1005.0
20260508054555 65 93 0.0 0.0 0.00 0.00 0.00 82 1005.0
20260508054447 65 93 0.0 0.0 0.00 0.00 0.00 82 1004.9
20260508054347 65 93 0.0 0.0 0.00 0.00 0.00 82 1005.0
20260508054247 65 93 0.0 0.0 0.00 0.00 0.00 82 1005.1
20260508054149 65 93 0.0 0.0 0.00 0.00 0.00 82 1005.2
20260508054048 65 93 0.0 0.0 0.00 0.00 0.00 82 1005.1
20260508053947 65 93 0.0 0.0 0.00 0.00 0.00 82 1005.2
20260508053849 65 93 0.0 0.0 0.00 0.00 0.00 82 1005.2
20260508053747 65 93 0.0 0.0 0.00 0.00 0.00 82 1005.2
20260508053648 65 93 0.0 0.0 0.00 0.00 0.00 82 1005.3
20260508053548 65 93 0.0 0.0 0.00 0.00 0.00 82 1005.3
20260508053447 65 93 0.0 0.0 0.00 0.00 0.00 82 1005.3
20260508053348 65 93 0.0 0.0 0.00 0.00 0.00 82 1005.3
20260508053248 65 93 0.0 0.0 0.00 0.00 0.00 82 1005.3
20260508053148 66 93 0.0 0.0 0.00 0.00 0.00 82 1005.3
20260508053048 66 93 0.0 0.0 0.00 0.00 0.00 82 1005.4
20260508052946 66 93 0.0 0.0 0.00 0.00 0.00 82 1005.4
20260508052847 66 93 0.0 0.0 0.00 0.00 0.00 82 1005.4
20260508052747 66 93 0.0 0.0 0.00 0.00 0.00 82 1005.4
20260508052647 66 93 0.0 0.0 0.00 0.00 0.00 81 1005.5
20260508052546 66 93 0.0 0.0 0.00 0.00 0.00 81 1005.5
20260508052446 66 93 0.0 0.0 0.00 0.00 0.00 81 1005.5
20260508052347 66 93 0.0 0.0 0.00 0.00 0.00 81 1005.5
20260508052248 66 93 0.0 0.0 0.00 0.00 0.00 81 1005.4
20260508052148 66 93 0.0 0.0 0.00 0.00 0.00 81 1005.3
20260508052046 66 93 0.0 0.0 0.00 0.00 0.00 81 1005.2
20260508051946 66 93 0.0 0.0 0.00 0.00 0.00 81 1005.0
20260508051846 66 93 0.0 0.0 0.00 0.00 0.00 81 1004.9
20260508051746 66 93 0.0 0.0 0.00 0.00 0.00 81 1005.0
20260508051647 66 93 0.0 0.0 0.00 0.00 0.00 81 1004.9
20260508051547 66 93 0.0 0.0 0.00 0.00 0.00 81 1004.9
20260508051446 66 93 0.0 0.0 0.00 0.00 0.00 81 1004.9
20260508051346 66 93 0.0 0.0 0.00 0.00 0.00 81 1004.9
20260508051247 66 93 0.0 0.0 0.00 0.00 0.00 81 1004.9
20260508051146 66 93 0.0 0.0 0.00 0.00 0.00 81 1004.8
20260508051044 66 93 0.0 0.0 0.00 0.00 0.00 81 1004.9
20260508050944 66 93 0.0 0.0 0.00 0.00 0.00 80 1004.9
20260508050839 66 93 0.0 0.0 0.00 0.00 0.00 80 1004.9
20260508050732 66 93 0.0 0.0 0.00 0.00 0.00 80 1004.9
20260508050632 66 93 0.0 0.0 0.00 0.00 0.00 80 1004.9
20260508050515 66 93 0.0 0.0 0.00 0.00 0.00 80 1004.9
20260508050413 66 93 0.0 0.0 0.00 0.00 0.00 80 1004.9
20260508050308 66 93 0.0 0.0 0.00 0.00 0.00 80 1005.0
20260508050208 66 93 0.0 0.0 0.00 0.00 0.00 80 1005.1
20260508050103 66 93 0.0 0.0 0.00 0.00 0.00 80 1005.1
20260508050002 66 93 0.0 0.0 0.00 0.00 0.00 80 1005.2
20260508045904 66 93 0.0 0.0 0.00 0.00 0.00 80 1005.2
20260508045802 66 93 0.0 0.0 0.00 0.00 0.00 80 1005.2
20260508045704 66 93 0.0 0.0 0.00 0.00 0.00 80 1005.3
20260508045601 66 93 0.0 0.0 0.00 0.00 0.00 80 1005.3
20260508045502 66 93 0.0 0.0 0.00 0.00 0.00 80 1005.2
20260508045402 66 93 0.0 0.0 0.00 0.00 0.00 80 1005.1
20260508045306 66 93 0.0 0.0 0.00 0.00 0.00 80 1005.1
20260508045205 66 93 0.0 0.0 0.00 0.00 0.00 80 1005.0
20260508045102 66 93 0.0 0.0 0.00 0.00 0.00 80 1005.1
20260508045004 66 93 0.0 0.0 0.00 0.00 0.00 80 1005.1
20260508044903 66 93 0.0 0.0 0.00 0.00 0.00 80 1005.2
20260508044804 66 93 0.0 0.0 0.00 0.00 0.00 80 1005.2
20260508044710 66 93 0.0 0.0 0.00 0.00 0.00 80 1005.3
20260508044603 66 93 0.0 0.0 0.00 0.00 0.00 80 1005.4
20260508044503 66 93 0.0 0.0 0.00 0.00 0.00 80 1005.4
20260508044402 66 93 0.0 0.0 0.00 0.00 0.00 80 1005.4
20260508044302 66 93 0.0 0.0 0.00 0.00 0.00 80 1005.4
20260508044206 66 93 0.0 0.0 0.00 0.00 0.00 80 1005.4
20260508044102 66 93 0.0 0.0 0.00 0.00 0.00 80 1005.3
20260508044004 66 93 0.0 0.0 0.00 0.00 0.00 80 1005.3
20260508043901 66 93 0.0 0.0 0.00 0.00 0.00 80 1005.2
20260508043803 66 93 0.0 0.0 0.00 0.00 0.00 80 1005.2
20260508043702 66 93 0.0 0.0 0.00 0.00 0.00 80 1005.2
20260508043604 66 93 0.0 0.0 0.00 0.00 0.00 80 1005.2
20260508043503 66 93 0.0 0.0 0.00 0.00 0.00 80 1005.1
20260508043402 66 93 0.0 0.0 0.00 0.00 0.00 80 1005.1
20260508043302 66 93 0.0 0.0 0.00 0.00 0.00 80 1005.1
20260508043202 66 93 0.0 0.0 0.00 0.00 0.00 80 1005.1
20260508043103 66 93 0.0 0.0 0.00 0.00 0.00 80 1005.1
20260508043004 66 93 0.0 0.0 0.00 0.00 0.00 80 1005.2
20260508042902 66 93 0.0 0.0 0.00 0.00 0.00 79 1005.2
20260508042803 66 93 0.0 0.0 0.00 0.00 0.00 79 1005.2
20260508042705 67 93 0.0 0.0 0.00 0.00 0.00 79 1005.2
20260508042603 67 93 0.0 0.0 0.00 0.00 0.00 79 1005.2
20260508042504 66 93 0.0 0.0 0.00 0.00 0.00 79 1005.2
20260508042403 67 93 0.0 0.0 0.00 0.00 0.00 79 1005.2
20260508042306 67 93 0.0 0.0 0.00 0.00 0.00 79 1005.3
20260508042204 67 93 0.0 0.0 0.00 0.00 0.00 79 1005.3
20260508042104 67 93 0.0 0.0 0.00 0.00 0.00 79 1005.3
20260508042004 67 93 0.0 0.0 0.00 0.00 0.00 79 1005.4
20260508041903 67 93 0.0 0.0 0.00 0.00 0.00 79 1005.4
20260508041804 67 93 0.0 0.0 0.00 0.00 0.00 78 1005.4
20260508041704 67 93 0.0 0.0 0.00 0.00 0.00 78 1005.4
20260508041603 67 93 0.0 0.0 0.00 0.00 0.00 78 1005.3
20260508041505 67 93 0.0 0.0 0.00 0.00 0.00 78 1005.3
20260508041403 67 93 0.0 0.0 0.00 0.00 0.00 78 1005.4
20260508041304 67 93 0.0 0.0 0.00 0.00 0.00 78 1005.3
20260508041204 67 93 0.0 0.0 0.00 0.00 0.00 78 1005.4
20260508041105 67 93 0.0 0.0 0.00 0.00 0.00 78 1005.2
20260508041005 67 93 0.0 0.0 0.00 0.00 0.00 78 1005.2
20260508040903 67 93 0.0 0.0 0.00 0.00 0.00 78 1005.3
20260508040803 67 93 0.0 0.0 0.00 0.00 0.00 78 1005.2
20260508040702 67 93 0.0 0.0 0.00 0.00 0.00 78 1005.3
20260508040603 67 93 0.0 0.0 0.00 0.00 0.00 78 1005.4
20260508040503 67 93 0.0 0.0 0.00 0.00 0.00 78 1005.4
20260508040403 67 93 0.0 0.0 0.00 0.00 0.00 78 1005.5
20260508040303 67 93 0.0 0.0 0.00 0.00 0.00 78 1005.5
20260508040204 67 93 0.0 0.0 0.00 0.00 0.00 78 1005.6
20260508040108 67 93 0.0 0.0 0.00 0.00 0.00 78 1005.6
20260508040002 67 93 0.0 0.0 0.00 0.00 0.00 78 1005.6
20260508035902 67 93 0.0 0.0 0.00 0.00 0.00 78 1005.4
20260508035801 67 93 0.0 0.0 0.00 0.00 0.00 78 1005.4
20260508035702 67 93 0.0 0.0 0.00 0.00 0.00 78 1005.4
20260508035607 67 93 0.0 0.0 0.00 0.00 0.00 78 1005.4
20260508035505 67 93 0.0 0.0 0.00 0.00 0.00 78 1005.4
20260508035405 67 93 0.0 0.0 0.00 0.00 0.00 78 1005.4
20260508035306 67 93 0.0 0.0 0.00 0.00 0.00 78 1005.4
20260508035204 67 93 0.0 0.0 0.00 0.00 0.00 78 1005.4
20260508035106 67 93 0.0 0.0 0.00 0.00 0.00 78 1005.4
20260508035003 67 93 0.0 0.0 0.00 0.00 0.00 78 1005.5
20260508034903 67 93 0.0 0.0 0.00 0.00 0.00 78 1005.5
20260508034801 67 93 0.0 0.0 0.00 0.00 0.00 78 1005.5
20260508034702 67 93 0.0 0.0 0.00 0.00 0.00 78 1005.5
20260508034611 67 93 0.0 0.0 0.00 0.00 0.00 78 1005.4
20260508034503 67 93 0.0 0.0 0.00 0.00 0.00 78 1005.3
20260508034404 67 93 0.0 0.0 0.00 0.00 0.00 78 1005.3
20260508034303 67 93 0.0 0.0 0.00 0.00 0.00 78 1005.2
20260508034201 67 93 0.0 0.0 0.00 0.00 0.00 78 1005.2
20260508034104 67 93 0.0 1.0 0.00 0.00 0.00 78 1005.1
20260508034003 67 93 0.0 1.0 0.00 0.00 0.00 78 1005.1
20260508033902 67 93 0.0 1.0 0.00 0.00 0.00 78 1005.1
20260508033804 67 93 0.0 1.0 0.00 0.00 0.00 78 1005.0
20260508033702 67 93 0.0 1.0 0.00 0.00 0.00 78 1005.0
20260508033604 67 93 0.0 1.0 0.00 0.00 0.00 78 1005.0
20260508033503 67 82 0.0 1.0 0.00 0.00 0.00 78 1005.0
20260508033403 67 82 0.0 1.0 0.00 0.00 0.00 78 1005.0
20260508033302 67 82 0.0 1.0 0.00 0.00 0.00 78 1005.0
20260508033202 67 63 0.0 1.0 0.00 0.00 0.00 78 1005.0
20260508033102 67 47 0.0 0.0 0.00 0.00 0.00 78 1005.0
20260508033003 67 47 0.0 0.0 0.00 0.00 0.00 78 1005.1
20260508032902 67 47 0.0 0.0 0.00 0.00 0.00 78 1005.1
20260508032804 67 47 0.0 0.0 0.00 0.00 0.00 78 1005.2
20260508032702 67 47 0.0 0.0 0.00 0.00 0.00 78 1005.2
20260508032603 67 47 0.0 0.0 0.00 0.00 0.00 78 1005.3
20260508032501 67 47 0.0 0.0 0.00 0.00 0.00 78 1005.2
20260508032402 67 49 0.0 0.0 0.00 0.00 0.00 78 1005.2
20260508032306 67 49 0.0 0.0 0.00 0.00 0.00 78 1005.1
20260508032204 67 49 0.0 0.0 0.00 0.00 0.00 77 1005.1
20260508032102 67 49 0.0 0.0 0.00 0.00 0.00 77 1005.1
20260508032003 67 49 0.0 0.0 0.00 0.00 0.00 78 1005.1
20260508031902 67 52 0.0 0.0 0.00 0.00 0.00 78 1005.0
20260508031802 67 48 0.0 0.0 0.00 0.00 0.00 78 1004.9
20260508031703 67 48 0.0 0.0 0.00 0.00 0.00 78 1004.9
20260508031602 67 48 0.0 0.0 0.00 0.00 0.00 78 1004.9
20260508031503 67 48 0.0 0.0 0.00 0.00 0.00 78 1004.9
20260508031402 67 52 0.0 0.0 0.00 0.00 0.00 78 1004.9
20260508031303 67 52 0.0 0.0 0.00 0.00 0.00 78 1005.0
20260508031203 67 52 0.0 0.0 0.00 0.00 0.00 77 1005.0
20260508031108 67 52 0.0 0.0 0.00 0.00 0.00 77 1005.1
20260508031003 67 52 0.0 0.0 0.00 0.00 0.00 77 1005.1
20260508030902 68 52 0.0 0.0 0.00 0.00 0.00 77 1005.2
20260508030802 68 52 0.0 0.0 0.00 0.00 0.00 77 1005.2
20260508030704 68 52 0.0 0.0 0.00 0.00 0.00 77 1005.1
20260508030603 68 52 0.0 0.0 0.00 0.00 0.00 77 1005.1
20260508030503 68 52 0.0 0.0 0.00 0.00 0.00 77 1005.1
20260508030402 68 52 0.0 0.0 0.00 0.00 0.00 77 1005.0
20260508030302 68 52 0.0 0.0 0.00 0.00 0.00 77 1005.1
20260508030202 68 52 0.0 0.0 0.00 0.00 0.00 77 1005.1
20260508030103 68 52 0.0 1.0 0.00 0.00 0.00 77 1005.2
20260508030004 68 52 0.0 1.0 0.00 0.00 0.00 77 1005.1
20260508025903 68 52 0.0 1.0 0.00 0.00 0.00 77 1005.2
20260508025804 68 52 0.0 1.0 0.00 0.00 0.00 77 1005.2
20260508025704 68 52 0.0 1.0 0.00 0.00 0.00 77 1005.2
20260508025603 68 52 0.0 1.0 0.00 0.00 0.00 77 1005.2
20260508025504 68 52 0.0 1.0 0.00 0.00 0.00 77 1005.3
20260508025403 68 52 0.0 1.0 0.00 0.00 0.00 77 1005.3
20260508025306 68 52 0.0 1.0 0.00 0.00 0.00 77 1005.3
20260508025203 68 52 0.0 1.0 0.00 0.00 0.00 77 1005.2
20260508025104 68 86 0.0 0.0 0.00 0.00 0.00 77 1005.3
20260508025006 68 86 0.0 1.0 0.00 0.00 0.00 77 1005.3
20260508024904 68 86 0.0 1.0 0.00 0.00 0.00 77 1005.3
20260508024803 68 86 0.0 1.0 0.00 0.00 0.00 77 1005.3
20260508024703 68 86 0.0 1.0 0.00 0.00 0.00 77 1005.3
20260508024603 68 86 0.0 1.0 0.00 0.00 0.00 77 1005.3
20260508024517 68 86 0.0 1.0 0.00 0.00 0.00 77 1005.3
20260508024403 68 86 0.0 1.0 0.00 0.00 0.00 77 1005.3
20260508024303 68 86 0.0 1.0 0.00 0.00 0.00 77 1005.3
20260508024204 68 86 0.0 1.0 0.00 0.00 0.00 77 1005.4
20260508024103 68 86 0.0 1.0 0.00 0.00 0.00 77 1005.4
20260508024004 68 52 0.0 1.0 0.00 0.00 0.00 77 1005.5
20260508023903 68 52 0.0 1.0 0.00 0.00 0.00 77 1005.5
20260508023805 68 51 0.0 2.0 0.00 0.00 0.00 77 1005.7
20260508023703 68 51 0.0 2.0 0.00 0.00 0.00 77 1005.6
20260508023603 68 90 0.0 2.0 0.00 0.00 0.00 77 1005.7
20260508023504 68 73 0.0 2.0 0.00 0.00 0.00 77 1005.7
20260508023404 68 73 0.0 2.0 0.00 0.00 0.00 77 1005.6
20260508023306 68 73 0.0 2.0 0.00 0.00 0.00 77 1005.7
20260508023203 68 73 0.0 2.0 0.00 0.00 0.00 77 1005.6
20260508023103 68 71 0.0 2.0 0.00 0.00 0.00 77 1005.6
20260508023004 69 71 0.0 2.0 0.00 0.00 0.00 78 1005.6
20260508022903 69 71 1.0 2.0 0.00 0.00 0.00 78 1005.7
20260508022802 69 80 0.0 1.0 0.00 0.00 0.00 78 1005.7
20260508022702 69 80 0.0 2.0 0.00 0.00 0.00 78 1005.7
20260508022602 69 80 0.0 2.0 0.00 0.00 0.00 77 1005.7
20260508022503 69 80 0.0 2.0 0.00 0.00 0.00 77 1005.8
20260508022402 69 80 0.0 2.0 0.00 0.00 0.00 77 1005.7
20260508022306 69 80 0.0 2.0 0.00 0.00 0.00 77 1005.7
20260508022216 69 80 0.0 2.0 0.00 0.00 0.00 77 1005.7
20260508022102 69 80 0.0 2.0 0.00 0.00 0.00 77 1005.7
20260508022003 69 80 0.0 2.0 0.00 0.00 0.00 77 1005.7
20260508021902 69 80 0.0 2.0 0.00 0.00 0.00 77 1005.7
20260508021803 69 80 0.0 2.0 0.00 0.00 0.00 77 1005.7
20260508021714 69 82 0.0 0.0 0.00 0.00 0.00 77 1005.8
20260508021603 69 82 0.0 0.0 0.00 0.00 0.00 77 1005.8
20260508021505 69 82 0.0 0.0 0.00 0.00 0.00 77 1005.8
20260508021402 69 82 0.0 0.0 0.00 0.00 0.00 77 1005.8
20260508021302 69 82 0.0 0.0 0.00 0.00 0.00 77 1005.6
20260508021205 69 82 0.0 0.0 0.00 0.00 0.00 77 1005.6
20260508021103 69 82 0.0 0.0 0.00 0.00 0.00 77 1005.5
20260508021002 69 82 0.0 0.0 0.00 0.00 0.00 77 1005.5
20260508020903 69 82 0.0 0.0 0.00 0.00 0.00 77 1005.5
20260508020802 69 82 0.0 0.0 0.00 0.00 0.00 77 1005.5
20260508020705 69 82 0.0 0.0 0.00 0.00 0.00 77 1005.5
20260508020602 69 82 0.0 0.0 0.00 0.00 0.00 77 1005.5
20260508020503 69 82 0.0 0.0 0.00 0.00 0.00 78 1005.6
20260508020403 69 82 0.0 0.0 0.00 0.00 0.00 78 1005.7
20260508020303 69 82 0.0 0.0 0.00 0.00 0.00 78 1005.6
20260508020202 69 82 0.0 0.0 0.00 0.00 0.00 78 1005.6
20260508020103 69 82 0.0 0.0 0.00 0.00 0.00 78 1005.6
20260508020003 69 82 0.0 0.0 0.00 0.00 0.00 78 1005.6
20260508015902 69 82 0.0 0.0 0.00 0.00 0.00 78 1005.6
20260508015802 69 82 0.0 0.0 0.00 0.00 0.00 78 1005.6
20260508015702 69 82 0.0 0.0 0.00 0.00 0.00 78 1005.7
20260508015602 69 82 0.0 0.0 0.00 0.00 0.00 78 1005.6
20260508015504 69 82 0.0 0.0 0.00 0.00 0.00 78 1005.5
20260508015404 69 82 0.0 0.0 0.00 0.00 0.00 78 1005.6
20260508015305 70 82 0.0 0.0 0.00 0.00 0.00 77 1005.5
20260508015211 70 82 0.0 0.0 0.00 0.00 0.00 77 1005.5
20260508015102 70 82 0.0 0.0 0.00 0.00 0.00 77 1005.5
20260508015003 70 82 0.0 0.0 0.00 0.00 0.00 77 1005.6
20260508014904 70 82 0.0 0.0 0.00 0.00 0.00 77 1005.6
20260508014802 70 82 0.0 0.0 0.00 0.00 0.00 77 1005.7
20260508014708 70 82 0.0 0.0 0.00 0.00 0.00 77 1005.7
20260508014602 70 82 0.0 0.0 0.00 0.00 0.00 77 1005.7
20260508014502 70 82 0.0 0.0 0.00 0.00 0.00 77 1005.8
20260508014403 70 82 0.0 0.0 0.00 0.00 0.00 78 1005.7
20260508014243 70 82 0.0 0.0 0.00 0.00 0.00 78 1005.7
20260508014142 70 82 0.0 0.0 0.00 0.00 0.00 78 1005.7
20260508014043 70 82 0.0 0.0 0.00 0.00 0.00 78 1005.7
20260508013943 70 82 0.0 0.0 0.00 0.00 0.00 78 1005.7
20260508013843 70 82 0.0 0.0 0.00 0.00 0.00 78 1005.7
20260508013741 70 82 0.0 0.0 0.00 0.00 0.00 77 1005.7
20260508013647 70 82 0.0 0.0 0.00 0.00 0.00 77 1005.6
20260508013543 70 82 0.0 0.0 0.00 0.00 0.00 77 1005.7
20260508013443 70 82 0.0 0.0 0.00 0.00 0.00 77 1005.5
20260508013344 70 82 0.0 0.0 0.00 0.00 0.00 77 1005.5
20260508013243 70 82 0.0 0.0 0.00 0.00 0.00 77 1005.6
20260508013143 70 82 0.0 0.0 0.00 0.00 0.00 77 1005.6
20260508013043 70 82 0.0 0.0 0.00 0.00 0.00 77 1005.5
20260508012941 70 82 0.0 0.0 0.00 0.00 0.00 77 1005.7
20260508012842 70 82 0.0 0.0 0.00 0.00 0.00 77 1005.7
20260508012743 70 82 0.0 0.0 0.00 0.00 0.00 77 1005.7
20260508012647 70 82 0.0 0.0 0.00 0.00 0.00 77 1005.7
20260508012542 70 82 0.0 0.0 0.00 0.00 0.00 77 1005.7
20260508012442 70 82 0.0 0.0 0.00 0.00 0.00 77 1005.8
20260508012342 70 82 0.0 0.0 0.00 0.00 0.00 77 1005.8
20260508012243 70 82 0.0 0.0 0.00 0.00 0.00 77 1005.7
20260508012147 70 82 0.0 0.0 0.00 0.00 0.00 77 1005.7
20260508012043 71 82 0.0 0.0 0.00 0.00 0.00 77 1005.7
20260508011941 70 82 0.0 0.0 0.00 0.00 0.00 77 1005.6
20260508011842 71 82 0.0 0.0 0.00 0.00 0.00 77 1005.5
20260508011743 71 82 0.0 0.0 0.00 0.00 0.00 77 1005.4
20260508011643 71 82 0.0 0.0 0.00 0.00 0.00 77 1005.4
20260508011543 71 82 0.0 0.0 0.00 0.00 0.00 77 1005.3
20260508011441 71 82 0.0 0.0 0.00 0.00 0.00 77 1005.4
20260508011342 71 82 0.0 0.0 0.00 0.00 0.00 77 1005.4
20260508011241 71 82 0.0 0.0 0.00 0.00 0.00 77 1005.4
20260508011145 71 82 0.0 0.0 0.00 0.00 0.00 77 1005.3
20260508011042 71 82 0.0 0.0 0.00 0.00 0.00 76 1005.4
20260508010942 71 82 0.0 0.0 0.00 0.00 0.00 76 1005.4
20260508010842 71 82 0.0 0.0 0.00 0.00 0.00 77 1005.4
20260508010742 71 82 0.0 0.0 0.00 0.00 0.00 77 1005.5
20260508010645 71 82 0.0 0.0 0.00 0.00 0.00 76 1005.5
20260508010542 71 82 0.0 0.0 0.00 0.00 0.00 76 1005.4
20260508010442 71 82 0.0 0.0 0.00 0.00 0.00 76 1005.4
20260508010343 71 82 0.0 0.0 0.00 0.00 0.00 76 1005.4
20260508010241 71 82 0.0 0.0 0.00 0.00 0.00 76 1005.4
20260508010141 71 82 0.0 0.0 0.00 0.00 0.00 76 1005.4
20260508010041 71 82 0.0 0.0 0.00 0.00 0.00 76 1005.4
20260508005941 71 82 0.0 0.0 0.00 0.00 0.00 76 1005.4
20260508005841 71 82 0.0 0.0 0.00 0.00 0.00 76 1005.5
20260508005741 71 82 0.0 0.0 0.00 0.00 0.00 77 1005.5
20260508005644 71 82 0.0 0.0 0.00 0.00 0.00 77 1005.5
20260508005542 71 82 0.0 0.0 0.00 0.00 0.00 77 1005.5
20260508005443 71 82 0.0 0.0 0.00 0.00 0.00 77 1005.5
20260508005340 71 82 0.0 0.0 0.00 0.00 0.00 77 1005.5
20260508005241 71 82 0.0 0.0 0.00 0.00 0.00 77 1005.3
20260508005215 71 82 0.0 0.0 0.00 0.00 0.00 77 1005.3
20260508005043 71 82 0.0 0.0 0.00 0.00 0.00 77 1005.3
20260508004940 71 82 0.0 0.0 0.00 0.00 0.00 77 1005.4
20260508004841 71 82 0.0 0.0 0.00 0.00 0.00 77 1005.4
20260508004741 71 82 0.0 0.0 0.00 0.00 0.00 76 1005.5
20260508004645 71 82 0.0 0.0 0.00 0.00 0.00 76 1005.5
20260508004541 71 82 0.0 0.0 0.00 0.00 0.00 76 1005.5
20260508004441 71 82 0.0 0.0 0.00 0.00 0.00 76 1005.5
20260508004341 71 82 0.0 0.0 0.00 0.00 0.00 76 1005.5
20260508004241 71 82 0.0 0.0 0.00 0.00 0.00 76 1005.5
20260508004146 71 82 0.0 0.0 0.00 0.00 0.00 76 1005.5
20260508004040 71 82 0.0 0.0 0.00 0.00 0.00 76 1005.4
20260508003940 71 82 0.0 0.0 0.00 0.00 0.00 76 1005.4
20260508003840 71 82 0.0 0.0 0.00 0.00 0.00 76 1005.3
20260508003740 71 82 0.0 0.0 0.00 0.00 0.00 76 1005.3
20260508003645 71 82 0.0 1.0 0.00 0.00 0.00 76 1005.4
20260508003542 71 82 0.0 1.0 0.00 0.00 0.00 76 1005.3
20260508003440 71 82 0.0 1.0 0.00 0.00 0.00 76 1005.4
20260508003340 71 82 0.0 1.0 0.00 0.00 0.00 76 1005.4
20260508003241 71 82 0.0 1.0 0.00 0.00 0.00 76 1005.4
20260508003142 71 82 0.0 1.0 0.00 0.00 0.00 76 1005.4
20260508003041 71 82 0.0 1.0 0.00 0.00 0.00 76 1005.4
20260508002941 71 82 0.0 1.0 0.00 0.00 0.00 75 1005.4
20260508002840 71 82 0.0 1.0 0.00 0.00 0.00 75 1005.3
20260508002741 71 82 0.0 1.0 0.00 0.00 0.00 75 1005.2
20260508002641 71 82 0.0 1.0 0.00 0.00 0.00 75 1005.2
20260508002540 71 261 0.0 1.0 0.00 0.00 0.00 75 1005.1
20260508002442 71 261 0.0 1.0 0.00 0.00 0.00 76 1005.0
20260508002340 71 261 0.0 1.0 0.00 0.00 0.00 75 1004.8
20260508002240 71 42 0.0 1.0 0.00 0.00 0.00 75 1004.8
20260508002140 71 42 0.0 1.0 0.00 0.00 0.00 76 1004.9
20260508002041 71 23 0.0 1.0 0.00 0.00 0.00 76 1004.9
20260508001941 71 85 0.0 1.0 0.00 0.00 0.00 75 1005.0
20260508001840 71 85 0.0 2.0 0.00 0.00 0.00 75 1005.0
20260508001740 71 85 0.0 2.0 0.00 0.00 0.00 76 1005.1
20260508001641 72 85 0.0 2.0 0.00 0.00 0.00 76 1005.1
20260508001541 72 85 0.0 2.0 0.00 0.00 0.00 76 1005.2
20260508001438 72 85 0.0 2.0 0.00 0.00 0.00 75 1005.3
20260508001338 72 85 0.0 2.0 0.00 0.00 0.00 75 1005.5
20260508001238 72 85 0.0 2.0 0.00 0.00 0.00 75 1005.6
20260508001135 72 85 0.0 2.0 0.00 0.00 0.00 75 1005.5
20260508001035 72 348 0.0 2.0 0.00 0.00 0.00 75 1005.5
20260508000931 72 348 0.0 2.0 0.00 0.00 0.00 75 1005.5
20260508000832 72 303 0.0 1.0 0.00 0.00 0.00 75 1005.4
20260508000733 72 303 0.0 2.0 0.00 0.00 0.00 75 1005.5
20260508000628 72 303 0.0 2.0 0.00 0.00 0.00 75 1005.4
20260508000521 72 298 0.0 2.0 0.00 0.00 0.00 75 1005.6
20260508000419 72 298 0.0 2.0 0.00 0.00 0.00 75 1005.5
20260508000316 72 298 0.0 2.0 0.00 0.00 0.00 76 1005.5
20260508000219 72 298 0.0 3.0 0.00 0.00 0.00 75 1005.6
20260508000113 72 121 0.0 3.0 0.00 0.00 0.00 75 1005.6
20260508000005 72 121 0.0 3.0 0.00 0.00 0.00 75 1005.5
20260507235903 72 121 1.0 3.0 0.00 0.00 0.00 75 1005.5
20260507235802 72 121 1.0 3.0 0.00 0.00 0.00 76 1005.6
20260507235705 72 97 0.0 3.0 0.00 0.00 0.00 76 1005.5
20260507235604 72 97 1.0 3.0 0.00 0.00 0.00 76 1005.6
20260507235504 73 93 0.0 3.0 0.00 0.00 0.00 76 1005.6
20260507235402 73 80 1.0 3.0 0.00 0.00 0.00 75 1005.7
20260507235306 73 80 2.0 3.0 0.00 0.00 0.00 75 1005.6
20260507235221 74 35 0.0 4.0 0.00 0.00 0.00 74 1005.6
20260507235214 73 90 1.0 3.0 0.00 0.00 0.00 75 1005.7
20260507235156 73 117 0.0 2.0 0.00 0.00 0.00 75 1005.7
20260507235142 73 166 0.0 1.0 0.00 0.00 0.00 75 1005.6
20260507235129 73 166 0.0 1.0 0.00 0.00 0.00 76 1005.5
20260507235101 73 166 0.0 1.0 0.00 0.00 0.00 74 1005.5
20260507235051 73 166 0.0 1.0 0.00 0.00 0.00 74 1005.4
20260507235040 73 166 0.0 1.0 0.00 0.00 0.00 74 1005.4
20260507235027 73 47 0.0 1.0 0.00 0.00 0.00 75 1005.4
20260507235014 73 47 0.0 1.0 0.00 0.00 0.00 75 1005.5
20260507234958 73 47 0.0 1.0 0.00 0.00 0.00 74 1005.5
20260507234947 73 47 0.0 1.0 0.00 0.00 0.00 74 1005.5
20260507234935 73 47 0.0 1.0 0.00 0.00 0.00 74 1005.5
20260507234923 73 47 0.0 1.0 0.00 0.00 0.00 74 1005.6
20260507234910 73 44 0.0 1.0 0.00 0.00 0.00 74 1005.6
20260507234857 73 35 0.0 4.0 0.00 0.00 0.00 75 1005.6
20260507234845 73 35 0.0 4.0 0.00 0.00 0.00 75 1005.7
20260507234833 74 35 0.0 4.0 0.00 0.00 0.00 75 1005.7
20260507234823 74 35 0.0 4.0 0.00 0.00 0.00 75 1005.7
20260507234813 74 35 0.0 4.0 0.00 0.00 0.00 75 1005.7
20260507234802 74 35 0.0 4.0 0.00 0.00 0.00 74 1005.6
20260507234752 74 35 0.0 4.0 0.00 0.00 0.00 73 1005.6
20260507233104 74 35 0.0 4.0 0.00 0.00 0.00 74 1005.6
20260507233005 74 255 2.0 4.0 0.00 0.00 0.00 74 1005.6
20260507232903 74 254 2.0 4.0 0.00 0.00 0.00 75 1005.6
20260507232802 74 99 0.0 4.0 0.00 0.00 0.00 75 1005.5
20260507232703 74 107 0.0 2.0 0.00 0.00 0.00 75 1005.5
20260507232612 74 107 0.0 2.0 0.00 0.00 0.00 75 1005.5
20260507232503 74 107 0.0 2.0 0.00 0.00 0.00 75 1005.5
20260507232404 74 107 0.0 2.0 0.00 0.00 0.00 75 1005.6
20260507232306 74 107 0.0 2.0 0.00 0.00 0.00 74 1005.5
20260507232203 74 107 0.0 2.0 0.00 0.00 0.00 74 1005.7
20260507232106 74 109 0.0 2.0 0.00 0.00 0.00 75 1005.7
20260507232006 74 116 0.0 2.0 0.00 0.00 0.00 75 1005.7
20260507231904 74 117 0.0 4.0 0.00 0.00 0.00 75 1005.7
20260507231803 74 117 0.0 4.0 0.00 0.00 0.00 74 1005.7
20260507231703 74 117 1.0 4.0 0.00 0.00 0.00 74 1005.6
20260507231604 74 117 0.0 4.0 0.00 0.00 0.00 75 1005.6
20260507231504 74 89 0.0 4.0 0.00 0.00 0.00 74 1005.6
20260507231405 74 89 0.0 4.0 0.00 0.00 0.00 74 1005.6
20260507231304 74 89 0.0 4.0 0.00 0.00 0.00 74 1005.6
20260507231203 74 89 0.0 4.0 0.00 0.00 0.00 74 1005.6
20260507231109 74 89 1.0 4.0 0.00 0.00 0.00 74 1005.5
20260507231005 74 83 1.0 4.0 0.00 0.00 0.00 75 1005.6
20260507230904 74 92 0.0 2.0 0.00 0.00 0.00 75 1005.5
20260507230805 74 92 0.0 2.0 0.00 0.00 0.00 75 1005.5
20260507230704 74 89 0.0 2.0 0.00 0.00 0.00 75 1005.5
20260507230554 74 89 0.0 2.0 0.00 0.00 0.00 75 1005.5
20260507230453 74 62 0.0 1.0 0.00 0.00 0.00 76 1005.5
20260507230351 74 63 0.0 1.0 0.00 0.00 0.00 76 1005.6
20260507230251 74 63 0.0 1.0 0.00 0.00 0.00 76 1005.6
20260507230147 74 63 0.0 0.0 0.00 0.00 0.00 76 1005.6
20260507230042 74 63 0.0 0.0 0.00 0.00 0.00 76 1005.6
20260507225938 74 63 0.0 0.0 0.00 0.00 0.00 76 1005.6
20260507225839 74 63 0.0 0.0 0.00 0.00 0.00 75 1005.7
20260507225740 74 63 0.0 0.0 0.00 0.00 0.00 75 1005.7
20260507225639 74 63 0.0 1.0 0.00 0.00 0.00 75 1005.6
20260507225539 74 63 0.0 1.0 0.00 0.00 0.00 75 1005.6
20260507225439 74 63 0.0 1.0 0.00 0.00 0.00 75 1005.5
20260507225338 74 63 0.0 1.0 0.00 0.00 0.00 74 1005.6
20260507225239 74 63 0.0 1.0 0.00 0.00 0.00 74 1005.5
20260507225138 74 63 0.0 1.0 0.00 0.00 0.00 75 1005.5
20260507225040 74 63 0.0 1.0 0.00 0.00 0.00 75 1005.5
20260507224939 74 63 0.0 2.0 0.00 0.00 0.00 75 1005.5
20260507224840 74 63 0.0 2.0 0.00 0.00 0.00 75 1005.5
20260507224740 74 63 0.0 2.0 0.00 0.00 0.00 75 1005.5
20260507224638 74 63 0.0 2.0 0.00 0.00 0.00 75 1005.5
20260507224545 74 63 0.0 2.0 0.00 0.00 0.00 75 1005.5
20260507224434 74 56 0.0 2.0 0.00 0.00 0.00 74 1005.3
20260507224335 74 56 0.0 2.0 0.00 0.00 0.00 73 1005.2
20260507224234 75 56 0.0 2.0 0.00 0.00 0.00 73 1005.3
20260507224131 75 56 0.0 2.0 0.00 0.00 0.00 73 1005.1
20260507224031 75 56 1.0 2.0 0.00 0.00 0.00 73 1005.1
20260507224013 75 104 0.0 2.0 0.00 0.00 0.00 73 1005.0
20260507224001 75 102 0.0 2.0 0.00 0.00 0.00 74 1005.1
20260507223946 75 104 1.0 2.0 0.00 0.00 0.00 74 1005.1
20260507223627 75 123 0.0 2.0 0.00 0.00 0.00 73 1005.0
20260507223534 75 123 0.0 2.0 0.00 0.00 0.00 73 1005.0
20260507223422 75 123 1.0 2.0 0.00 0.00 0.00 73 1005.0
20260507223321 75 100 0.0 2.0 0.00 0.00 0.00 74 1004.9
20260507223216 75 289 0.0 2.0 0.00 0.00 0.00 74 1005.0
20260507223118 75 289 0.0 2.0 0.00 0.00 0.00 74 1004.9
20260507223021 75 289 0.0 2.0 0.00 0.00 0.00 74 1004.9
20260507222918 75 289 0.0 2.0 0.00 0.00 0.00 74 1004.8
20260507222819 75 289 0.0 2.0 0.00 0.00 0.00 74 1004.8
20260507222715 75 289 0.0 2.0 0.00 0.00 0.00 74 1004.8
20260507222612 75 289 0.0 2.0 0.00 0.00 0.00 72 1004.7
20260507222517 75 289 1.0 2.0 0.00 0.00 0.00 72 1004.7
20260507222401 75 289 1.0 2.0 0.00 0.00 0.00 74 1004.7
20260507222305 75 68 0.0 1.0 0.00 0.00 0.00 74 1004.7
20260507222202 75 68 0.0 1.0 0.00 0.00 0.00 73 1004.7
20260507222102 75 68 0.0 1.0 0.00 0.00 0.00 72 1004.7
20260507222004 75 68 0.0 1.0 0.00 0.01 0.00 73 1004.8
20260507221903 75 68 0.0 1.0 0.00 0.01 0.00 73 1004.8
20260507221802 75 68 0.0 1.0 0.00 0.01 0.00 73 1004.9
20260507221702 75 68 0.0 1.0 0.00 0.01 0.00 74 1004.9
20260507221604 75 71 0.0 1.0 0.00 0.01 0.00 74 1004.9
20260507221504 75 71 0.0 2.0 0.00 0.01 0.00 75 1004.9
20260507221403 75 71 0.0 2.0 0.00 0.01 0.00 75 1004.9
20260507221303 75 71 0.0 2.0 0.00 0.01 0.00 74 1005.0
20260507221203 75 71 0.0 2.0 0.00 0.01 0.00 74 1005.0
20260507221103 75 71 0.0 2.0 0.00 0.01 0.00 74 1005.1
20260507221003 75 71 0.0 2.0 0.00 0.01 0.00 73 1005.1
20260507220902 75 71 0.0 2.0 0.00 0.01 0.00 74 1005.1
20260507220803 75 71 0.0 2.0 0.00 0.01 0.00 74 1005.1
20260507220707 75 71 0.0 2.0 0.00 0.01 0.00 72 1005.0
20260507220603 75 71 0.0 2.0 0.00 0.01 0.00 75 1005.0
20260507220454 75 111 0.0 2.0 0.00 0.01 0.00 75 1005.1
20260507220351 75 116 0.0 4.0 0.00 0.01 0.00 74 1005.0
20260507220250 75 116 0.0 4.0 0.00 0.01 0.00 74 1005.0
20260507220151 75 116 0.0 4.0 0.00 0.01 0.00 75 1005.1
20260507220038 75 113 0.0 4.0 0.00 0.01 0.00 72 1005.1
20260507215936 75 113 0.0 4.0 0.00 0.01 0.00 72 1005.1
20260507215838 75 113 0.0 4.0 0.00 0.01 0.00 72 1005.1
20260507215736 75 113 0.0 4.0 0.00 0.01 0.00 72 1005.1
20260507215637 75 113 0.0 4.0 0.00 0.01 0.00 72 1005.1
20260507215538 75 114 2.0 4.0 0.00 0.02 0.00 74 1005.2
20260507215436 75 133 2.0 4.0 0.00 0.03 0.00 75 1005.2
20260507215337 75 234 1.0 4.0 0.00 0.03 0.00 75 1005.2
20260507215237 75 80 0.0 0.0 0.00 0.03 0.00 75 1005.3
20260507215139 75 80 0.0 1.0 0.00 0.03 0.00 75 1005.3
20260507215037 75 80 0.0 1.0 0.00 0.03 0.00 73 1005.3
20260507214936 75 80 0.0 3.0 0.00 0.03 0.00 73 1005.3
20260507214837 75 80 0.0 3.0 0.00 0.03 0.00 73 1005.2
20260507214738 75 80 0.0 3.0 0.00 0.03 0.00 73 1005.3
20260507214637 76 80 0.0 3.0 0.00 0.03 0.00 73 1005.3
20260507214536 76 80 0.0 3.0 0.00 0.03 0.00 73 1005.2
20260507214436 76 80 0.0 3.0 0.00 0.03 0.00 73 1005.2
20260507214336 75 80 0.0 3.0 0.00 0.03 0.00 73 1005.3
20260507214236 75 80 1.0 3.0 0.00 0.03 0.00 73 1005.3
20260507214137 75 79 1.0 3.0 0.00 0.03 0.00 73 1005.3
20260507214036 75 93 1.0 3.0 0.00 0.03 0.00 73 1005.3
20260507213938 75 76 2.0 3.0 0.00 0.03 0.00 73 1005.3
20260507213838 75 76 1.0 2.0 0.00 0.03 0.00 73 1005.3
20260507213736 76 117 0.0 2.0 0.00 0.03 0.00 73 1005.4
20260507213647 76 63 0.0 2.0 0.00 0.03 0.00 72 1005.4
20260507213537 76 63 0.0 2.0 0.00 0.03 0.00 72 1005.4
20260507213439 76 63 0.0 2.0 0.00 0.03 0.00 72 1005.4
20260507213336 76 63 0.0 2.0 0.00 0.03 0.00 72 1005.4
20260507213237 76 68 1.0 2.0 0.00 0.03 0.00 72 1005.4
20260507213136 76 68 1.0 2.0 0.00 0.03 0.00 72 1005.3
20260507213036 76 62 1.0 2.0 0.00 0.03 0.00 73 1005.4
20260507212939 76 114 1.0 2.0 0.00 0.03 0.00 73 1005.4
20260507212836 76 114 1.0 2.0 0.00 0.03 0.00 73 1005.4
20260507212735 76 114 1.0 2.0 0.00 0.03 0.00 73 1005.4
20260507212631 76 114 0.0 2.0 0.00 0.03 0.00 73 1005.4
20260507212533 76 114 0.0 2.0 0.00 0.03 0.00 73 1005.4
20260507212433 76 114 0.0 2.0 0.00 0.03 0.00 74 1005.3
20260507212331 76 114 0.0 2.0 0.00 0.03 0.00 74 1005.3
20260507212233 76 114 0.0 2.0 0.00 0.03 0.00 74 1005.3
20260507212131 76 114 0.0 2.0 0.00 0.03 0.00 74 1005.3
20260507212032 76 114 0.0 4.0 0.00 0.03 0.00 74 1005.2
20260507211932 76 113 0.0 4.0 0.00 0.03 0.00 72 1005.3
20260507211831 76 113 0.0 4.0 0.00 0.03 0.00 72 1005.3
20260507211732 76 113 0.0 4.0 0.00 0.03 0.00 72 1005.3
20260507211634 76 113 1.0 4.0 0.00 0.03 0.00 72 1005.3
20260507211532 76 113 1.0 4.0 0.00 0.03 0.00 73 1005.3
20260507211431 76 134 1.0 4.0 0.00 0.03 0.00 73 1005.4
20260507211329 76 138 1.0 4.0 0.00 0.03 0.00 74 1005.4
20260507211226 76 30 1.0 4.0 0.00 0.03 0.00 74 1005.3
20260507211126 76 30 2.0 4.0 0.00 0.03 0.00 74 1005.4
20260507211023 76 51 1.0 3.0 0.00 0.03 0.00 74 1005.4
20260507210919 76 106 1.0 2.0 0.00 0.03 0.00 74 1005.5
20260507210821 76 104 1.0 2.0 0.00 0.03 0.00 74 1005.5
20260507210719 76 351 1.0 2.0 0.00 0.03 0.00 74 1005.5
20260507210622 76 351 1.0 3.0 0.00 0.03 0.00 74 1005.5
20260507210516 76 330 1.0 3.0 0.00 0.03 0.00 74 1005.6
20260507210410 76 330 1.0 3.0 0.00 0.03 0.00 74 1005.6
20260507210310 76 327 0.0 3.0 0.00 0.03 0.00 74 1005.5
20260507210208 76 327 0.0 3.0 0.00 0.03 0.00 73 1005.5
20260507210109 76 327 0.0 3.0 0.00 0.03 0.00 74 1005.6
20260507210003 76 327 1.0 3.0 0.00 0.03 0.00 72 1005.7
20260507205904 76 327 1.0 3.0 0.00 0.03 0.00 72 1005.6
20260507205804 76 327 2.0 3.0 0.00 0.03 0.00 72 1005.7
20260507205704 76 326 1.0 3.0 0.00 0.03 0.00 73 1005.7
20260507205606 76 73 0.0 2.0 0.00 0.03 0.00 73 1005.7
20260507205503 76 73 0.0 2.0 0.00 0.03 0.00 73 1005.8
20260507205403 76 73 0.0 2.0 0.00 0.03 0.00 73 1005.8
20260507205306 76 76 0.0 2.0 0.00 0.03 0.00 73 1005.8
20260507205204 76 76 1.0 3.0 0.00 0.03 0.00 74 1005.7
20260507205104 76 82 1.0 3.0 0.00 0.03 0.00 74 1005.8
20260507205004 76 82 0.0 3.0 0.00 0.03 0.00 73 1005.8
20260507204903 76 82 0.0 3.0 0.00 0.03 0.00 72 1005.8
20260507204802 76 82 1.0 3.0 0.00 0.03 0.00 72 1005.9
20260507204703 76 135 1.0 3.0 0.00 0.03 0.00 72 1005.8
20260507204603 76 107 1.0 3.0 0.00 0.03 0.00 73 1005.9
20260507204505 76 118 1.0 3.0 0.00 0.03 0.00 73 1005.9
20260507204403 75 69 1.0 3.0 0.00 0.03 0.00 73 1005.9
20260507204303 75 63 1.0 3.0 0.00 0.03 0.00 73 1005.9
20260507204201 75 61 1.0 2.0 0.00 0.03 0.00 73 1006.0
20260507204105 75 3 1.0 2.0 0.00 0.03 0.00 73 1005.9
20260507204005 75 11 1.0 4.0 0.00 0.03 0.00 73 1005.9
20260507203904 75 0 1.0 4.0 0.00 0.03 0.00 73 1005.9
20260507203804 75 149 1.0 4.0 0.00 0.03 0.00 73 1005.9
20260507203704 75 34 0.0 4.0 0.00 0.03 0.00 73 1005.8
20260507203602 75 34 1.0 4.0 0.00 0.03 0.00 74 1005.9
20260507203504 76 23 1.0 4.0 0.00 0.03 0.00 73 1005.8
20260507203403 76 23 1.0 4.0 0.00 0.03 0.00 74 1005.8
20260507203304 76 137 1.0 4.0 0.00 0.03 0.00 74 1005.8
20260507203204 76 116 1.0 4.0 0.00 0.03 0.00 74 1005.9
20260507203102 75 117 2.0 4.0 0.00 0.03 0.00 74 1005.9
20260507203004 75 247 1.0 2.0 0.00 0.03 0.00 74 1006.0
20260507202904 75 323 0.0 2.0 0.00 0.03 0.00 74 1006.0
20260507202802 75 320 0.0 3.0 0.00 0.03 0.00 73 1006.1
20260507202703 75 320 1.0 3.0 0.00 0.03 0.00 74 1006.1
20260507202605 75 134 1.0 3.0 0.00 0.03 0.00 74 1006.1
20260507202503 75 135 0.0 3.0 0.00 0.03 0.00 74 1006.1
20260507202404 75 44 1.0 3.0 0.00 0.03 0.00 73 1006.1
20260507202306 75 42 1.0 3.0 0.00 0.03 0.00 73 1006.1
20260507202203 75 336 0.0 3.0 0.00 0.03 0.00 74 1006.1
20260507202103 75 336 0.0 3.0 0.00 0.03 0.00 74 1006.0
20260507202005 75 336 1.0 3.0 0.00 0.03 0.00 72 1006.1
20260507201903 75 336 1.0 3.0 0.00 0.03 0.00 72 1006.2
20260507201804 75 324 1.0 3.0 0.00 0.03 0.00 72 1006.1
20260507201703 76 8 0.0 3.0 0.00 0.03 0.00 72 1006.1
20260507201603 76 68 1.0 2.0 0.00 0.03 0.00 72 1006.1
20260507201503 76 68 1.0 3.0 0.00 0.03 0.00 73 1006.1
20260507201403 76 93 1.0 3.0 0.00 0.03 0.00 73 1006.1
20260507201303 76 93 1.0 3.0 0.00 0.03 0.00 73 1006.1
20260507201203 76 94 1.0 3.0 0.00 0.03 0.00 74 1006.1
20260507201104 76 94 0.0 3.0 0.00 0.03 0.00 74 1006.2
20260507201004 76 78 1.0 3.0 0.00 0.03 0.00 74 1006.1
20260507200904 76 78 1.0 3.0 0.00 0.03 0.00 74 1006.1
20260507200802 76 31 1.0 3.0 0.00 0.03 0.00 74 1006.2
20260507200702 76 31 2.0 3.0 0.00 0.03 0.00 74 1006.2
20260507200604 76 133 2.0 3.0 0.00 0.03 0.00 74 1006.2
20260507200505 76 276 1.0 2.0 0.00 0.03 0.00 73 1006.1
20260507200359 76 209 1.0 2.0 0.00 0.03 0.00 74 1006.1
20260507200256 76 20 0.0 2.0 0.00 0.03 0.00 74 1006.0
20260507200151 75 37 0.0 3.0 0.00 0.03 0.00 74 1006.1
20260507200039 75 51 0.0 3.0 0.00 0.03 0.00 74 1006.0
20260507195935 75 51 0.0 3.0 0.00 0.03 0.00 74 1006.0
20260507195834 75 42 0.0 3.0 0.00 0.03 0.00 74 1006.1
20260507195734 75 90 1.0 3.0 0.00 0.03 0.00 73 1006.1
20260507195635 75 75 1.0 3.0 0.00 0.03 0.00 73 1006.1
20260507195537 75 128 0.0 3.0 0.00 0.03 0.00 73 1006.2
20260507195434 75 54 1.0 3.0 0.00 0.03 0.00 73 1006.2
20260507195335 75 113 2.0 3.0 0.00 0.03 0.00 73 1006.2
20260507195234 75 111 1.0 3.0 0.00 0.03 0.00 73 1006.2
20260507195134 75 94 1.0 4.0 0.00 0.03 0.00 73 1006.2
20260507195035 75 0 0.0 4.0 0.00 0.03 0.00 74 1006.3
20260507194934 75 123 0.0 4.0 0.00 0.03 0.00 73 1006.3
20260507194833 75 123 1.0 4.0 0.00 0.03 0.00 73 1006.2
20260507194734 75 123 1.0 4.0 0.00 0.03 0.00 74 1006.3
20260507194634 75 65 1.0 4.0 0.00 0.03 0.00 74 1006.2
20260507194534 75 66 1.0 4.0 0.00 0.03 0.00 74 1006.3
20260507194434 75 80 1.0 4.0 0.00 0.03 0.00 73 1006.3
20260507194333 75 93 2.0 4.0 0.00 0.03 0.00 73 1006.3
20260507194233 75 319 1.0 4.0 0.00 0.03 0.00 73 1006.4
20260507194133 75 329 1.0 4.0 0.00 0.03 0.00 73 1006.4
20260507194034 75 329 1.0 4.0 0.00 0.03 0.00 72 1006.5
20260507193933 76 42 1.0 4.0 0.00 0.03 0.00 72 1006.5
20260507193834 76 80 1.0 4.0 0.00 0.03 0.00 72 1006.5
20260507193733 76 87 1.0 4.0 0.00 0.03 0.00 72 1006.6
20260507193633 76 92 2.0 4.0 0.00 0.03 0.00 74 1006.7
20260507193534 76 106 2.0 4.0 0.00 0.03 0.00 74 1006.7
20260507193433 76 104 1.0 4.0 0.00 0.03 0.00 74 1006.7
20260507193335 75 90 2.0 4.0 0.00 0.03 0.00 74 1006.9
20260507193234 75 44 2.0 4.0 0.00 0.03 0.00 74 1006.7
20260507193134 75 106 2.0 4.0 0.00 0.03 0.00 75 1006.7
20260507193037 75 96 1.0 3.0 0.00 0.03 0.00 75 1006.7
20260507192933 75 38 1.0 3.0 0.00 0.03 0.00 73 1006.6
20260507192833 75 38 1.0 3.0 0.00 0.03 0.00 73 1006.5
20260507192733 75 39 0.0 3.0 0.00 0.03 0.00 73 1006.4
20260507192633 75 38 1.0 3.0 0.00 0.03 0.00 74 1006.4
20260507192534 75 38 2.0 3.0 0.00 0.03 0.00 74 1006.4
20260507192434 74 312 1.0 3.0 0.00 0.03 0.00 75 1006.4
20260507192334 74 10 1.0 3.0 0.00 0.03 0.00 73 1006.4
20260507192233 74 141 2.0 3.0 0.00 0.03 0.00 74 1006.4
20260507192133 74 348 2.0 3.0 0.00 0.03 0.00 75 1006.4
20260507192037 74 326 2.0 3.0 0.00 0.03 0.00 75 1006.4
20260507191933 74 141 1.0 3.0 0.00 0.03 0.00 74 1006.5
20260507191833 74 154 0.0 3.0 0.00 0.03 0.00 74 1006.5
20260507191735 74 154 1.0 3.0 0.00 0.03 0.00 74 1006.4
20260507191633 74 154 1.0 3.0 0.00 0.03 0.00 74 1006.4
20260507191534 74 154 1.0 3.0 0.00 0.03 0.00 73 1006.4
20260507191433 74 254 1.0 3.0 0.00 0.03 0.00 73 1006.4
20260507191332 74 92 0.0 3.0 0.00 0.03 0.00 73 1006.4
20260507191233 74 89 0.0 3.0 0.00 0.03 0.00 73 1006.5
20260507191133 74 89 0.0 3.0 0.00 0.03 0.00 71 1006.6
20260507191034 74 89 1.0 3.0 0.00 0.03 0.00 71 1006.5
20260507190934 74 89 2.0 3.0 0.00 0.03 0.00 71 1006.6
20260507190832 74 183 2.0 3.0 0.00 0.03 0.00 71 1006.6
20260507190733 75 185 2.0 3.0 0.00 0.03 0.00 71 1006.7
20260507190633 75 0 1.0 3.0 0.00 0.03 0.00 72 1006.7
20260507190533 75 38 0.0 3.0 0.00 0.03 0.00 73 1006.7
20260507190433 75 137 1.0 3.0 0.00 0.03 0.00 73 1006.8
20260507190333 75 130 1.0 3.0 0.00 0.03 0.00 72 1006.7
20260507190235 75 130 2.0 3.0 0.00 0.03 0.00 75 1006.9
20260507190132 75 161 1.0 3.0 0.00 0.03 0.00 75 1006.9
20260507190033 74 114 1.0 3.0 0.00 0.03 0.00 73 1007.2
20260507185933 74 69 1.0 3.0 0.00 0.03 0.00 73 1007.2
20260507185832 74 71 2.0 3.0 0.00 0.03 0.00 74 1007.2
20260507185734 74 82 2.0 3.0 0.00 0.03 0.00 74 1007.3
20260507185633 74 102 1.0 3.0 0.00 0.03 0.00 74 1007.3
20260507185532 74 92 0.0 2.0 0.00 0.03 0.00 73 1007.3
20260507185433 74 93 0.0 2.0 0.00 0.03 0.00 73 1007.2
20260507185335 74 89 1.0 2.0 0.00 0.03 0.00 74 1007.1
20260507185234 74 58 1.0 2.0 0.00 0.03 0.00 76 1007.2
20260507185132 74 58 1.0 2.0 0.00 0.03 0.00 76 1007.1
20260507185034 74 58 1.0 3.0 0.00 0.03 0.00 75 1007.1
20260507184932 73 17 1.0 3.0 0.00 0.03 0.00 75 1007.2
20260507184833 73 109 1.0 3.0 0.00 0.03 0.00 74 1007.2
20260507184733 73 111 1.0 3.0 0.00 0.03 0.00 74 1007.2
20260507184632 73 107 1.0 5.0 0.00 0.03 0.00 74 1007.3
20260507184532 73 99 2.0 5.0 0.00 0.03 0.00 75 1007.4
20260507184433 73 96 1.0 5.0 0.00 0.03 0.00 75 1007.4
20260507184332 73 76 1.0 5.0 0.00 0.03 0.00 75 1007.4
20260507184234 73 76 1.0 5.0 0.00 0.03 0.00 75 1007.4
20260507184132 73 76 1.0 5.0 0.00 0.03 0.00 76 1007.4
20260507184033 73 141 0.0 5.0 0.00 0.03 0.00 76 1007.5
20260507183933 72 281 1.0 5.0 0.00 0.03 0.00 75 1007.6
20260507183834 72 281 2.0 5.0 0.00 0.03 0.00 75 1007.6
20260507183733 72 345 2.0 5.0 0.00 0.03 0.00 75 1007.6
20260507183632 72 114 2.0 4.0 0.00 0.03 0.00 75 1007.7
20260507183533 72 121 2.0 4.0 0.00 0.03 0.00 74 1007.6
20260507183432 72 63 1.0 5.0 0.00 0.03 0.00 74 1007.6
20260507183332 72 65 1.0 5.0 0.00 0.03 0.00 75 1007.4
20260507183233 72 65 1.0 5.0 0.00 0.03 0.00 75 1007.4
20260507183132 72 45 1.0 5.0 0.00 0.03 0.00 75 1007.3
20260507183032 72 92 1.0 5.0 0.00 0.03 0.00 75 1007.4
20260507182932 72 92 2.0 5.0 0.00 0.03 0.00 74 1007.4
20260507182832 72 54 2.0 5.0 0.00 0.03 0.00 74 1007.5
20260507182733 72 217 2.0 5.0 0.00 0.03 0.00 74 1007.6
20260507182632 72 73 2.0 5.0 0.00 0.03 0.00 76 1007.6
20260507182532 72 0 2.0 5.0 0.00 0.03 0.00 76 1007.7
20260507182432 72 3 1.0 3.0 0.00 0.03 0.00 76 1007.7
20260507182332 71 320 1.0 3.0 0.00 0.03 0.00 76 1007.7
20260507182230 71 288 1.0 3.0 0.00 0.03 0.00 76 1007.7
20260507182132 71 354 2.0 3.0 0.00 0.03 0.00 76 1007.7
20260507182031 71 94 1.0 3.0 0.00 0.03 0.00 76 1007.7
20260507181933 71 86 1.0 3.0 0.00 0.03 0.00 77 1007.6
20260507181831 71 329 2.0 3.0 0.00 0.03 0.00 76 1007.6
20260507181732 71 331 2.0 3.0 0.00 0.03 0.00 76 1007.5
20260507181632 71 179 2.0 3.0 0.00 0.03 0.00 76 1007.5
20260507181531 71 206 1.0 3.0 0.00 0.03 0.00 76 1007.4
20260507181432 71 149 0.0 3.0 0.00 0.03 0.00 76 1007.4
20260507181332 70 149 1.0 3.0 0.00 0.03 0.00 76 1007.4
20260507181231 70 28 2.0 3.0 0.00 0.03 0.00 76 1007.5
20260507181132 70 55 1.0 3.0 0.00 0.03 0.00 76 1007.5
20260507181032 71 182 1.0 3.0 0.00 0.03 0.00 76 1007.6
20260507180931 71 180 1.0 3.0 0.00 0.03 0.00 76 1007.6
20260507180832 71 345 2.0 4.0 0.00 0.03 0.00 76 1007.6
20260507180731 71 56 2.0 4.0 0.00 0.03 0.00 76 1007.7
20260507180631 71 358 2.0 4.0 0.00 0.03 0.00 76 1007.7
20260507180531 71 87 1.0 4.0 0.00 0.03 0.00 75 1007.6
20260507180431 71 113 2.0 4.0 0.00 0.03 0.00 75 1007.6
20260507180331 71 340 1.0 4.0 0.00 0.03 0.00 75 1007.6
20260507180233 71 20 1.0 4.0 0.00 0.03 0.00 75 1007.6
20260507180123 71 10 1.0 4.0 0.00 0.03 0.00 77 1007.8
20260507180015 71 58 1.0 4.0 0.00 0.03 0.00 77 1007.7
20260507175902 71 116 1.0 4.0 0.00 0.03 0.00 76 1007.8
20260507175804 71 93 1.0 7.0 0.00 0.03 0.00 76 1007.8
20260507175705 71 99 1.0 7.0 0.00 0.03 0.00 77 1007.8
20260507175602 71 0 1.0 7.0 0.00 0.03 0.00 76 1007.8
20260507175504 70 90 0.0 7.0 0.00 0.03 0.00 76 1007.9
20260507175404 70 116 1.0 7.0 0.00 0.03 0.00 76 1007.8
20260507175306 70 220 2.0 7.0 0.00 0.03 0.00 76 1007.8
20260507175209 71 219 1.0 7.0 0.00 0.03 0.00 76 1007.8
20260507175102 71 83 2.0 7.0 0.00 0.03 0.00 77 1007.9
20260507175003 70 35 3.0 7.0 0.00 0.03 0.00 78 1007.9
20260507174902 70 195 2.0 7.0 0.00 0.03 0.00 78 1007.9
20260507174802 70 66 1.0 4.0 0.00 0.03 0.00 78 1007.9
20260507174708 70 78 1.0 4.0 0.00 0.03 0.00 78 1007.9
20260507174604 70 80 1.0 4.0 0.00 0.03 0.00 78 1008.0
20260507174504 71 124 1.0 4.0 0.00 0.03 0.00 78 1007.9
20260507174402 70 283 1.0 4.0 0.00 0.03 0.00 78 1007.9
20260507174304 70 0 1.0 4.0 0.00 0.03 0.00 78 1008.0
20260507174204 70 0 2.0 4.0 0.00 0.03 0.00 78 1008.0
20260507174103 70 55 2.0 3.0 0.00 0.03 0.00 78 1007.9
20260507174003 70 87 0.0 3.0 0.00 0.03 0.00 78 1008.0
20260507173902 69 179 0.0 3.0 0.00 0.03 0.00 77 1008.0
20260507173803 69 179 0.0 3.0 0.00 0.03 0.00 77 1007.9
20260507173705 69 176 1.0 3.0 0.00 0.03 0.00 77 1007.9
20260507173603 69 179 2.0 3.0 0.00 0.03 0.00 79 1008.0
20260507173503 69 152 1.0 3.0 0.00 0.03 0.00 79 1008.0
20260507173402 69 118 0.0 2.0 0.00 0.03 0.00 79 1008.1
20260507173302 69 118 1.0 2.0 0.00 0.03 0.00 79 1008.2
20260507173202 69 69 0.0 2.0 0.00 0.03 0.00 79 1008.2
20260507173103 69 72 0.0 2.0 0.00 0.03 0.00 79 1008.2
20260507173004 69 72 0.0 2.0 0.00 0.03 0.00 78 1008.4
20260507172904 69 0 1.0 2.0 0.00 0.03 0.00 78 1008.5
20260507172803 68 71 0.0 2.0 0.00 0.03 0.00 78 1008.5
20260507172703 68 71 0.0 2.0 0.00 0.03 0.00 78 1008.5
20260507172603 68 68 1.0 2.0 0.00 0.03 0.00 78 1008.5
20260507172502 68 76 0.0 2.0 0.00 0.03 0.00 78 1008.5
20260507172402 68 327 0.0 2.0 0.00 0.03 0.00 78 1008.5
20260507172307 68 63 0.0 2.0 0.00 0.03 0.00 79 1008.6
20260507172204 68 58 0.0 2.0 0.00 0.03 0.00 79 1008.5
20260507172102 68 59 0.0 2.0 0.00 0.03 0.00 79 1008.5
20260507172003 68 59 0.0 2.0 0.00 0.03 0.00 79 1008.5
20260507171904 68 331 0.0 4.0 0.00 0.03 0.00 79 1008.5
20260507171802 68 333 0.0 4.0 0.00 0.03 0.00 79 1008.5
20260507171702 68 72 0.0 4.0 0.00 0.03 0.00 79 1008.5
20260507171604 68 72 0.0 4.0 0.00 0.03 0.00 79 1008.6
20260507171503 68 72 0.0 4.0 0.00 0.03 0.00 80 1008.6
20260507171403 68 186 1.0 4.0 0.00 0.03 0.00 80 1008.6
20260507171302 68 97 1.0 5.0 0.00 0.03 0.00 79 1008.6
20260507171202 68 96 1.0 5.0 0.00 0.03 0.00 79 1008.7
20260507171102 68 97 2.0 5.0 0.00 0.03 0.00 79 1008.7
20260507171002 68 93 1.0 5.0 0.00 0.03 0.00 79 1008.7
20260507170903 68 107 0.0 5.0 0.00 0.03 0.00 79 1008.8
20260507170804 68 107 0.0 5.0 0.00 0.03 0.00 79 1008.8
20260507170702 68 104 1.0 5.0 0.00 0.03 0.00 78 1008.8
20260507170604 68 103 1.0 5.0 0.00 0.03 0.00 79 1008.8
20260507170504 68 353 2.0 5.0 0.00 0.03 0.00 79 1008.7
20260507170403 68 353 2.0 5.0 0.00 0.03 0.00 79 1008.7
20260507170302 68 75 1.0 5.0 0.00 0.03 0.00 79 1008.7
20260507170205 68 300 1.0 4.0 0.00 0.03 0.00 79 1008.6
20260507170103 68 175 1.0 4.0 0.00 0.03 0.00 78 1008.5
20260507170002 68 175 1.0 4.0 0.00 0.03 0.00 78 1008.5
20260507165902 68 102 1.0 4.0 0.00 0.03 0.00 79 1008.5
20260507165802 69 99 1.0 4.0 0.00 0.03 0.00 79 1008.4
20260507165704 69 80 1.0 4.0 0.00 0.03 0.00 79 1008.4
20260507165603 69 303 1.0 4.0 0.00 0.03 0.00 79 1008.4
20260507165503 69 330 1.0 4.0 0.00 0.03 0.00 79 1008.4
20260507165403 69 0 1.0 4.0 0.00 0.03 0.00 79 1008.4
20260507165306 69 3 1.0 4.0 0.00 0.03 0.00 79 1008.4
20260507165202 69 265 0.0 4.0 0.00 0.03 0.00 79 1008.3
20260507165103 68 269 0.0 4.0 0.00 0.03 0.00 79 1008.3
20260507165003 68 269 0.0 4.0 0.00 0.03 0.00 79 1008.3
20260507164902 68 269 1.0 4.0 0.00 0.03 0.00 79 1008.4
20260507164802 68 340 1.0 4.0 0.00 0.03 0.00 79 1008.3
20260507164704 68 329 1.0 4.0 0.00 0.03 0.00 78 1008.4
20260507164602 68 35 1.0 4.0 0.00 0.03 0.00 79 1008.4
20260507164504 68 350 1.0 4.0 0.00 0.03 0.00 80 1008.4
20260507164403 68 103 1.0 4.0 0.00 0.03 0.00 80 1008.3
20260507164303 68 204 1.0 2.0 0.00 0.03 0.00 79 1008.4
20260507164153 67 212 0.0 2.0 0.00 0.03 0.00 79 1008.3
20260507164051 67 83 0.0 2.0 0.00 0.03 0.00 79 1008.3
20260507163948 67 83 1.0 4.0 0.00 0.03 0.00 79 1008.2
20260507163830 67 219 1.0 4.0 0.00 0.03 0.00 80 1008.3
20260507163730 67 192 1.0 4.0 0.00 0.03 0.00 79 1008.3
20260507163631 67 179 1.0 4.0 0.00 0.03 0.00 79 1008.3
20260507163531 67 251 1.0 4.0 0.00 0.03 0.00 79 1008.3
20260507163431 67 250 1.0 4.0 0.00 0.03 0.00 79 1008.3
20260507163331 67 30 1.0 4.0 0.00 0.03 0.00 79 1008.3
20260507163231 67 155 2.0 4.0 0.00 0.03 0.00 79 1008.3
20260507163130 67 102 1.0 5.0 0.00 0.03 0.00 79 1008.4
20260507163031 67 114 1.0 5.0 0.00 0.03 0.00 79 1008.4
20260507162931 67 111 1.0 5.0 0.00 0.03 0.00 78 1008.3
20260507162831 67 90 1.0 5.0 0.00 0.03 0.00 78 1008.3
20260507162731 67 85 1.0 5.0 0.00 0.03 0.00 78 1008.3
20260507162631 67 114 1.0 5.0 0.00 0.03 0.00 78 1008.3
20260507162531 67 120 1.0 5.0 0.00 0.03 0.00 79 1008.2
20260507162430 67 147 1.0 5.0 0.00 0.03 0.00 79 1008.2
20260507162331 67 97 1.0 5.0 0.00 0.03 0.00 79 1008.2
20260507162231 67 52 1.0 5.0 0.00 0.03 0.00 79 1008.2
20260507162132 67 110 1.0 4.0 0.00 0.03 0.00 79 1008.2
20260507162031 67 111 1.0 4.0 0.00 0.03 0.00 80 1008.1
20260507161930 67 113 1.0 4.0 0.00 0.03 0.00 80 1008.0
20260507161831 67 113 0.0 4.0 0.00 0.03 0.00 80 1008.1
20260507161731 66 113 1.0 4.0 0.00 0.03 0.00 80 1007.9
20260507161631 66 41 1.0 4.0 0.00 0.03 0.00 80 1007.9
20260507161531 66 0 1.0 4.0 0.00 0.03 0.00 80 1008.0
20260507161431 66 351 1.0 4.0 0.00 0.03 0.00 80 1007.9
20260507161331 66 79 1.0 4.0 0.00 0.03 0.00 80 1007.9
20260507161230 65 79 2.0 4.0 0.00 0.03 0.00 80 1007.9
20260507161130 66 72 1.0 5.0 0.00 0.03 0.00 79 1007.9
20260507161031 66 314 1.0 5.0 0.00 0.03 0.00 80 1007.9
20260507160931 66 140 1.0 5.0 0.00 0.03 0.00 80 1007.9
20260507160831 66 127 1.0 5.0 0.00 0.03 0.00 80 1007.9
20260507160731 66 307 1.0 5.0 0.00 0.03 0.00 80 1008.0
20260507160631 66 292 2.0 5.0 0.00 0.03 0.00 80 1008.0
20260507160531 66 286 1.0 5.0 0.00 0.03 0.00 81 1008.1
20260507160430 66 83 1.0 5.0 0.00 0.03 0.00 81 1007.9
20260507160331 65 83 2.0 5.0 0.00 0.03 0.00 80 1008.0
20260507160231 65 83 2.0 5.0 0.00 0.03 0.00 80 1008.0
20260507160137 65 52 1.0 3.0 0.00 0.03 0.00 80 1007.9
20260507160032 65 312 1.0 3.0 0.00 0.03 0.00 80 1007.9
20260507155930 65 214 1.0 3.0 0.00 0.03 0.00 80 1008.0
20260507155827 66 141 1.0 3.0 0.00 0.03 0.00 80 1007.9
20260507155729 66 133 1.0 3.0 0.00 0.03 0.00 80 1007.9
20260507155629 66 124 1.0 3.0 0.00 0.03 0.00 80 1007.9
20260507155530 66 104 1.0 3.0 0.00 0.03 0.00 81 1007.8
20260507155430 66 0 1.0 3.0 0.00 0.03 0.00 81 1007.8
20260507155330 66 329 0.0 3.0 0.00 0.03 0.00 81 1007.9
20260507155230 66 85 0.0 3.0 0.00 0.03 0.00 81 1007.9
20260507155134 65 78 0.0 3.0 0.00 0.03 0.00 81 1007.8
20260507155028 65 78 0.0 3.0 0.00 0.03 0.00 81 1007.7
20260507154930 65 78 0.0 3.0 0.00 0.03 0.00 81 1007.7
20260507154828 65 75 0.0 3.0 0.00 0.03 0.00 82 1007.7
20260507154730 65 83 0.0 3.0 0.00 0.03 0.00 82 1007.6
20260507154629 65 350 0.0 3.0 0.00 0.03 0.00 82 1007.6
20260507154528 64 350 1.0 3.0 0.00 0.03 0.00 83 1007.6
20260507154430 64 68 1.0 3.0 0.00 0.03 0.00 83 1007.6
20260507154330 64 55 1.0 3.0 0.00 0.03 0.00 82 1007.6
20260507154230 64 55 0.0 4.0 0.00 0.03 0.00 82 1007.5
20260507154129 64 316 0.0 4.0 0.00 0.03 0.00 82 1007.6
20260507154029 64 316 0.0 4.0 0.00 0.03 0.00 82 1007.5
20260507153928 63 310 1.0 4.0 0.00 0.03 0.00 82 1007.6
20260507153829 63 310 1.0 4.0 0.00 0.03 0.00 82 1007.6
20260507153728 63 10 0.0 4.0 0.00 0.03 0.00 82 1007.6
20260507153630 63 69 1.0 4.0 0.00 0.03 0.00 82 1007.6
20260507153530 63 55 1.0 4.0 0.00 0.03 0.00 82 1007.7
20260507153429 64 114 2.0 4.0 0.00 0.03 0.00 82 1007.6
20260507153329 64 124 2.0 4.0 0.00 0.03 0.00 82 1007.7
20260507153229 63 62 1.0 3.0 0.00 0.03 0.00 82 1007.7
20260507153128 63 107 0.0 3.0 0.00 0.03 0.00 82 1007.7
20260507153030 63 0 0.0 3.0 0.00 0.03 0.00 82 1007.8
20260507152928 63 358 1.0 3.0 0.00 0.03 0.00 82 1007.9
20260507152828 63 78 0.0 3.0 0.00 0.03 0.00 83 1007.8
20260507152728 63 104 0.0 2.0 0.00 0.03 0.00 83 1007.8
20260507152629 63 104 0.0 2.0 0.00 0.03 0.00 83 1007.8
20260507152529 63 71 1.0 2.0 0.00 0.03 0.00 83 1007.9
20260507152428 63 173 1.0 2.0 0.00 0.03 0.00 83 1007.9
20260507152329 63 68 0.0 2.0 0.00 0.03 0.00 83 1007.9
20260507152228 63 23 1.0 3.0 0.00 0.03 0.00 83 1007.9
20260507152129 63 121 1.0 3.0 0.00 0.03 0.00 83 1008.0
20260507152028 63 97 1.0 3.0 0.00 0.03 0.00 83 1008.0
20260507151929 63 176 1.0 3.0 0.00 0.03 0.00 83 1008.0
20260507151829 63 134 0.0 3.0 0.00 0.03 0.00 83 1008.1
20260507151729 63 116 0.0 3.0 0.00 0.03 0.00 83 1008.1
20260507151628 63 110 0.0 3.0 0.00 0.03 0.00 83 1008.1
20260507151527 63 106 1.0 6.0 0.00 0.03 0.00 83 1008.1
20260507151428 63 106 1.0 6.0 0.00 0.03 0.00 83 1008.0
20260507151327 62 113 0.0 6.0 0.00 0.03 0.00 83 1007.9
20260507151228 62 93 0.0 6.0 0.00 0.03 0.00 83 1007.9
20260507151129 62 107 0.0 6.0 0.00 0.03 0.00 83 1007.8
20260507151030 62 106 0.0 6.0 0.00 0.03 0.00 83 1007.7
20260507150922 63 76 0.0 6.0 0.00 0.03 0.00 83 1007.7
20260507150822 63 79 0.0 6.0 0.00 0.03 0.00 83 1007.8
20260507150717 62 79 1.0 6.0 0.00 0.03 0.00 83 1007.8
20260507150610 62 8 1.0 6.0 0.00 0.03 0.00 83 1007.8
20260507150505 62 313 0.0 6.0 0.00 0.03 0.00 83 1007.8
20260507150402 62 147 1.0 6.0 0.00 0.03 0.00 83 1007.7
20260507150303 62 47 0.0 6.0 0.00 0.03 0.00 83 1007.8
20260507150202 62 114 0.0 6.0 0.00 0.03 0.00 83 1007.8
20260507150003 62 116 1.0 6.0 0.00 0.03 0.00 84 1007.7
20260507145902 62 97 2.0 6.0 0.00 0.03 0.00 84 1007.7
20260507145802 62 131 1.0 3.0 0.00 0.03 0.00 84 1007.6
20260507145703 62 149 1.0 3.0 0.00 0.03 0.00 84 1007.7
20260507145603 62 213 0.0 2.0 0.00 0.03 0.00 84 1007.6
20260507145503 62 213 0.0 2.0 0.00 0.03 0.00 84 1007.6
20260507145402 62 171 1.0 2.0 0.00 0.03 0.00 84 1007.5
20260507145306 62 83 0.0 2.0 0.00 0.03 0.00 84 1007.6
20260507145202 62 73 0.0 2.0 0.00 0.03 0.00 84 1007.7
20260507145102 62 72 0.0 2.0 0.00 0.03 0.00 84 1007.7
20260507145002 62 72 0.0 2.0 0.00 0.03 0.00 84 1007.7
20260507144904 62 72 0.0 2.0 0.00 0.03 0.00 84 1007.8
20260507144802 62 72 0.0 2.0 0.00 0.03 0.00 84 1007.9
20260507144702 62 58 0.0 2.0 0.00 0.03 0.00 84 1007.9
20260507144604 62 133 0.0 2.0 0.00 0.03 0.00 84 1008.0
20260507144502 62 133 1.0 6.0 0.00 0.03 0.00 84 1007.9
20260507144454 62 54 0.0 6.0 0.00 0.03 0.00 84 1008.0
20260507144450 62 128 0.0 10.0 0.00 0.03 0.00 85 1007.9
20260507144437 62 124 1.0 6.0 0.00 0.03 0.00 84 1008.0
20260507144422 62 102 0.0 6.0 0.00 0.03 0.00 84 1007.9
20260507144145 62 20 0.0 6.0 0.00 0.03 0.00 85 1007.9
20260507144121 62 65 0.0 10.0 0.00 0.03 0.00 85 1008.0
20260507143802 62 38 1.0 10.0 0.00 0.03 0.00 85 1007.8
20260507143702 62 17 2.0 10.0 0.00 0.03 0.00 85 1007.8
20260507143604 62 68 1.0 10.0 0.00 0.03 0.00 85 1007.7
20260507143456 62 97 0.0 10.0 0.00 0.03 0.00 85 1007.8
20260507143330 62 97 1.0 10.0 0.00 0.03 0.00 85 1007.8
20260507143232 62 224 0.0 10.0 0.00 0.03 0.00 85 1007.8
20260507143135 62 73 1.0 10.0 0.00 0.03 0.00 85 1007.9
20260507143032 62 7 2.0 10.0 0.00 0.03 0.00 85 1007.9
20260507142929 62 131 2.0 5.0 0.00 0.03 0.00 85 1007.9
20260507142828 62 99 2.0 5.0 0.00 0.03 0.00 85 1007.8
20260507142728 62 32 1.0 5.0 0.00 0.03 0.00 85 1007.8
20260507142632 62 118 1.0 5.0 0.00 0.03 0.00 85 1007.8
20260507142526 62 137 1.0 2.0 0.00 0.03 0.00 85 1007.8
20260507142425 62 320 1.0 2.0 0.00 0.03 0.00 85 1007.9
20260507142322 62 116 0.0 4.0 0.00 0.03 0.00 85 1007.9
20260507142222 62 117 0.0 4.0 0.00 0.03 0.00 85 1007.9
20260507142119 62 45 0.0 4.0 0.00 0.03 0.00 85 1007.9
20260507142016 62 44 0.0 4.0 0.00 0.03 0.00 85 1007.9
20260507141914 62 186 0.0 4.0 0.00 0.03 0.00 85 1007.8
20260507141811 62 17 0.0 4.0 0.00 0.03 0.00 85 1007.8
20260507141704 62 76 1.0 4.0 0.00 0.03 0.00 85 1007.8
20260507141603 62 121 1.0 4.0 0.00 0.03 0.00 85 1007.8
20260507141502 61 172 1.0 4.0 0.00 0.03 0.00 85 1007.8
20260507141402 62 149 1.0 4.0 0.00 0.03 0.00 85 1007.8
20260507141304 62 121 1.0 4.0 0.00 0.03 0.00 85 1007.7
20260507141204 61 27 1.0 4.0 0.00 0.03 0.00 85 1007.8
20260507141102 61 303 1.0 4.0 0.00 0.03 0.00 85 1007.7
20260507141002 61 207 1.0 4.0 0.00 0.03 0.00 85 1007.8
20260507140904 61 116 0.0 4.0 0.00 0.03 0.00 85 1007.8
20260507140803 62 65 1.0 4.0 0.00 0.03 0.00 85 1007.8
20260507140703 62 94 1.0 4.0 0.00 0.03 0.00 85 1007.8
20260507140602 62 73 1.0 4.0 0.00 0.03 0.00 85 1007.8
20260507140502 62 69 1.0 4.0 0.00 0.03 0.00 85 1007.8
20260507140404 62 99 1.0 3.0 0.00 0.03 0.00 85 1007.9
20260507140304 62 99 1.0 3.0 0.00 0.03 0.00 85 1007.9
20260507140202 62 334 1.0 2.0 0.00 0.03 0.00 85 1008.0
20260507140103 62 100 1.0 3.0 0.00 0.03 0.00 85 1008.0
20260507140002 62 118 1.0 3.0 0.00 0.03 0.00 85 1007.9
20260507135902 62 109 1.0 4.0 0.00 0.03 0.00 85 1007.9
20260507135802 62 110 0.0 4.0 0.00 0.03 0.00 85 1008.0
20260507135705 62 354 0.0 4.0 0.00 0.03 0.00 85 1007.9
20260507135603 62 158 0.0 4.0 0.00 0.03 0.00 85 1007.9
20260507135504 62 111 0.0 4.0 0.00 0.03 0.00 85 1008.0
20260507135404 62 109 0.0 4.0 0.00 0.03 0.00 85 1008.1
20260507135305 62 109 1.0 4.0 0.00 0.03 0.00 85 1008.1
20260507135204 62 111 1.0 4.0 0.00 0.03 0.00 85 1008.0
20260507135104 62 49 1.0 4.0 0.00 0.03 0.00 85 1007.9
20260507135002 62 86 0.0 2.0 0.00 0.03 0.00 85 1008.0
20260507134858 62 99 0.0 2.0 0.00 0.03 0.00 85 1007.9
20260507134755 62 55 0.0 2.0 0.00 0.03 0.00 85 1007.9
20260507134652 62 55 0.0 2.0 0.00 0.03 0.00 85 1007.9
20260507134531 62 49 0.0 2.0 0.00 0.03 0.00 85 1007.8
20260507134432 62 49 0.0 2.0 0.00 0.03 0.00 85 1007.9
20260507134327 62 51 1.0 2.0 0.00 0.03 0.00 85 1007.9
20260507134226 62 51 1.0 2.0 0.00 0.03 0.00 85 1008.0
20260507134127 62 49 0.0 2.0 0.00 0.03 0.00 85 1007.9
20260507134028 62 8 0.0 2.0 0.00 0.03 0.00 85 1008.0
20260507133926 62 35 0.0 2.0 0.00 0.03 0.00 85 1008.0
20260507133826 62 103 0.0 2.0 0.00 0.03 0.00 85 1008.0
20260507133727 62 102 0.0 2.0 0.00 0.03 0.00 85 1008.0
20260507133625 62 102 0.0 2.0 0.00 0.03 0.00 85 1008.0
20260507133527 62 102 0.0 2.0 0.00 0.03 0.00 85 1008.0
20260507133427 62 102 1.0 2.0 0.00 0.03 0.00 85 1008.0
20260507133327 62 186 0.0 2.0 0.00 0.03 0.00 85 1008.1
20260507133226 62 186 0.0 3.0 0.00 0.03 0.00 85 1008.2
20260507133127 62 186 0.0 3.0 0.00 0.03 0.00 85 1008.2
20260507133029 62 138 0.0 3.0 0.00 0.03 0.00 85 1008.2
20260507132916 62 138 0.0 3.0 0.00 0.03 0.00 85 1008.1
20260507132816 62 137 1.0 3.0 0.00 0.03 0.00 85 1008.0
20260507132718 62 137 0.0 3.0 0.00 0.03 0.00 85 1008.0
20260507132609 62 100 0.0 3.0 0.00 0.03 0.00 85 1008.0
20260507132506 62 100 0.0 3.0 0.00 0.03 0.00 85 1008.1
20260507132404 62 100 1.0 3.0 0.00 0.03 0.00 85 1008.1
20260507132307 62 180 1.0 3.0 0.00 0.03 0.00 85 1008.1
20260507132207 62 61 0.0 2.0 0.00 0.03 0.00 85 1007.9
20260507132103 62 131 0.0 4.0 0.00 0.03 0.00 85 1008.0
20260507132002 62 131 0.0 4.0 0.00 0.03 0.00 85 1007.8
20260507131905 62 131 0.0 4.0 0.00 0.03 0.00 85 1007.8
20260507131804 62 134 0.0 4.0 0.00 0.03 0.00 85 1007.7
20260507131650 62 134 0.0 7.0 0.00 0.03 0.00 85 1007.7
20260507131537 62 147 0.0 7.0 0.00 0.03 0.00 85 1007.7
20260507131433 62 147 0.0 7.0 0.00 0.03 0.00 85 1007.8
20260507131330 62 147 1.0 7.0 0.00 0.03 0.00 85 1007.8
20260507131232 62 138 1.0 7.0 0.00 0.03 0.00 85 1007.8
20260507131135 62 116 0.0 7.0 0.00 0.03 0.00 85 1007.8
20260507131033 62 116 1.0 7.0 0.00 0.03 0.00 85 1007.8
20260507130933 62 231 1.0 7.0 0.00 0.03 0.00 85 1007.7
20260507130831 62 78 1.0 7.0 0.00 0.03 0.00 85 1007.8
20260507130732 62 68 0.0 2.0 0.00 0.03 0.00 85 1007.9
20260507130631 62 317 0.0 4.0 0.00 0.03 0.00 85 1007.9
20260507130533 62 234 0.0 4.0 0.00 0.03 0.00 85 1007.9
20260507130431 62 171 0.0 4.0 0.00 0.03 0.00 85 1008.0
20260507130327 62 162 0.0 4.0 0.00 0.03 0.00 85 1007.9
20260507130227 62 162 0.0 4.0 0.00 0.03 0.00 85 1007.9
20260507130126 62 162 0.0 6.0 0.00 0.03 0.00 85 1007.9
20260507130027 62 162 0.0 6.0 0.00 0.03 0.00 85 1007.9
20260507125926 62 89 0.0 6.0 0.00 0.03 0.00 85 1007.9
20260507125827 62 89 1.0 6.0 0.00 0.03 0.00 85 1008.0
20260507125726 62 89 2.0 6.0 0.00 0.03 0.00 85 1008.0
20260507125626 62 73 1.0 6.0 0.00 0.03 0.00 85 1008.0
20260507125525 62 100 0.0 6.0 0.00 0.03 0.00 85 1008.0
20260507125426 62 93 2.0 6.0 0.00 0.03 0.00 85 1007.9
20260507125325 62 35 2.0 6.0 0.00 0.03 0.00 85 1007.9
20260507125225 62 96 0.0 3.0 0.00 0.03 0.00 85 1007.8
20260507125126 62 99 0.0 3.0 0.00 0.03 0.00 85 1007.9
20260507125025 62 99 0.0 3.0 0.00 0.03 0.00 85 1007.8
20260507124926 62 100 1.0 3.0 0.00 0.03 0.00 85 1007.9
20260507124824 62 137 1.0 3.0 0.00 0.03 0.00 85 1007.8
20260507124726 62 96 1.0 3.0 0.00 0.03 0.00 85 1007.9
20260507124626 62 89 1.0 3.0 0.00 0.03 0.00 85 1007.9
20260507124524 62 35 1.0 3.0 0.00 0.03 0.00 85 1008.0
20260507124425 62 47 0.0 3.0 0.00 0.03 0.00 85 1007.9
20260507124326 62 66 0.0 3.0 0.00 0.03 0.00 85 1008.1
20260507124224 62 68 0.0 3.0 0.00 0.03 0.00 85 1008.1
20260507124131 62 56 0.0 3.0 0.00 0.03 0.00 85 1008.0
20260507124025 62 56 0.0 3.0 0.00 0.03 0.00 85 1008.1
20260507123924 62 56 0.0 3.0 0.00 0.03 0.00 85 1008.1
20260507123825 62 63 0.0 3.0 0.00 0.03 0.00 85 1007.9
20260507123724 62 63 0.0 3.0 0.00 0.03 0.00 85 1007.9
20260507123627 62 54 1.0 3.0 0.00 0.03 0.00 85 1007.8
20260507123524 62 120 1.0 3.0 0.00 0.03 0.00 85 1007.8
20260507123426 62 268 0.0 3.0 0.00 0.03 0.00 85 1007.8
20260507123325 62 252 0.0 3.0 0.00 0.03 0.00 85 1007.9
20260507123224 62 149 0.0 3.0 0.00 0.03 0.00 85 1007.9
20260507123124 62 133 0.0 3.0 0.00 0.03 0.00 85 1008.0
20260507123024 62 83 0.0 3.0 0.00 0.03 0.00 85 1008.0
20260507122924 62 83 1.0 3.0 0.00 0.03 0.00 85 1007.9
20260507122823 62 113 0.0 3.0 0.00 0.03 0.00 85 1007.9
20260507122725 62 0 0.0 1.0 0.00 0.03 0.00 85 1007.8
20260507122624 63 100 0.0 1.0 0.00 0.03 0.00 85 1007.7
20260507122536 63 147 0.0 2.0 0.00 0.03 0.00 85 1007.7
20260507122406 63 147 0.0 2.0 0.00 0.03 0.00 85 1007.6
20260507122306 63 147 0.0 2.0 0.00 0.03 0.00 85 1007.5
20260507122203 63 147 0.0 2.0 0.00 0.03 0.00 85 1007.5
20260507122104 63 147 0.0 2.0 0.00 0.03 0.00 85 1007.5
20260507122005 63 147 0.0 2.0 0.00 0.03 0.00 85 1007.5
20260507121905 63 147 0.0 3.0 0.00 0.03 0.00 85 1007.4
20260507121802 63 147 0.0 3.0 0.00 0.03 0.00 85 1007.4
20260507121714 63 147 1.0 5.0 0.00 0.03 0.00 85 1007.3
20260507121602 63 141 0.0 5.0 0.00 0.03 0.00 85 1007.2
20260507121502 63 116 0.0 5.0 0.00 0.03 0.00 85 1007.1
20260507121405 63 113 0.0 5.0 0.00 0.03 0.00 85 1007.0
20260507121302 63 113 0.0 5.0 0.00 0.03 0.00 85 1006.9
20260507121208 63 113 0.0 5.0 0.00 0.03 0.00 85 1006.9
20260507121102 63 113 1.0 5.0 0.00 0.03 0.00 85 1006.9
20260507121002 63 113 1.0 5.0 0.00 0.03 0.00 85 1006.9
20260507120904 63 82 1.0 5.0 0.00 0.03 0.00 85 1006.8
20260507120754 63 28 2.0 5.0 0.00 0.03 0.00 85 1006.7
20260507120655 63 354 1.0 2.0 0.00 0.03 0.00 85 1006.7
20260507120554 63 131 0.0 2.0 0.00 0.03 0.00 85 1006.7
20260507120446 63 344 0.0 2.0 0.00 0.03 0.00 85 1006.6
20260507120344 63 344 1.0 2.0 0.00 0.03 0.00 85 1006.5
20260507120234 63 338 1.0 2.0 0.00 0.03 0.00 85 1006.5
20260507120133 63 97 0.0 2.0 0.00 0.03 0.00 85 1006.4
20260507120023 63 75 0.0 2.0 0.00 0.03 0.00 85 1006.4
20260507115921 63 296 0.0 2.0 0.00 0.03 0.00 85 1006.4
20260507115823 63 18 0.0 2.0 0.00 0.03 0.00 85 1006.6
20260507115723 63 18 1.0 2.0 0.00 0.03 0.00 85 1006.6
20260507115623 63 161 1.0 2.0 0.00 0.03 0.00 85 1006.7
20260507115523 63 159 0.0 2.0 0.00 0.03 0.00 85 1006.7
20260507115422 63 159 0.0 3.0 0.00 0.03 0.00 85 1006.8
20260507115321 63 159 0.0 3.0 0.00 0.03 0.00 85 1006.6
20260507115222 63 159 1.0 3.0 0.00 0.03 0.00 85 1006.5
20260507115121 63 159 1.0 3.0 0.00 0.03 0.00 85 1006.5
20260507115021 63 133 0.0 3.0 0.00 0.03 0.00 85 1006.4
20260507114921 63 82 0.0 3.0 0.00 0.03 0.00 85 1006.4
20260507114821 63 62 0.0 3.0 0.00 0.03 0.00 85 1006.3
20260507114721 63 104 1.0 3.0 0.00 0.03 0.00 85 1006.2
20260507114621 63 94 1.0 3.0 0.00 0.03 0.00 85 1006.2